ECMWFFLT1_850_spd_051.txt.gz
Wind_Speed
23 23 23 23 23 24 24 24 24 24 24 25 26 26 26 27 26 27 27 27 28 27 28 30 32 35 37 38 38 38 37 36 36 36 36 35 36 37 37 33 30 30 33 34 31 31 33 32 31 31 30 29 27 23 20 19 19 22 24 25 26 26 27
22 22 22 22 23 23 24 24 24 24 25 26 27 27 28 28 28 28 28 28 29 28 28 29 31 32 34 35 37 37 37 37 37 37 38 39 39 40 41 38 35 33 36 37 34 32 34 35 36 37 35 34 34 32 29 26 24 24 25 25 25 25 26
21 21 21 22 22 23 23 24 24 24 25 26 26 27 28 28 29 30 30 30 31 30 29 30 31 32 32 34 36 36 34 34 34 35 37 41 41 41 42 41 38 35 36 38 37 35 35 35 35 36 37 37 38 37 35 34 32 30 29 29 29 29 29
20 21 21 22 22 22 22 23 22 23 24 25 26 27 28 28 28 29 30 31 31 32 32 31 31 31 30 30 34 36 35 32 31 32 34 38 39 40 41 41 39 37 37 39 39 38 38 36 35 35 34 35 36 38 37 36 34 33 32 31 31 32 34
21 20 21 22 22 21 21 22 22 22 23 23 24 26 27 28 29 29 29 30 30 31 32 32 32 32 30 30 31 34 35 35 33 33 34 36 37 37 37 36 36 36 36 37 39 40 40 37 35 35 34 33 33 34 35 35 34 32 31 30 30 33 35
21 21 21 21 21 21 20 20 20 21 22 22 22 23 25 26 28 30 30 30 30 30 30 31 31 31 32 33 33 32 33 34 35 35 37 38 38 37 37 35 35 35 34 36 37 38 39 38 36 36 35 33 31 32 33 33 34 34 32 31 31 33 33
21 21 21 20 20 19 19 19 19 20 21 22 21 22 23 24 25 27 28 29 30 30 30 31 30 30 31 34 36 36 35 34 34 35 37 39 39 40 40 40 40 38 36 37 37 38 38 37 36 35 34 32 30 30 31 32 35 37 37 35 35 35 35
21 20 20 19 18 17 17 18 19 20 21 21 21 20 21 22 22 23 25 26 27 28 29 30 30 30 30 31 34 36 37 37 36 35 36 37 36 35 37 41 42 40 37 35 34 35 36 36 35 35 36 35 32 31 33 34 35 37 37 36 36 36 36
21 20 20 18 17 16 16 18 19 20 20 21 20 19 19 20 21 22 23 24 24 25 26 26 27 28 28 29 30 32 34 37 39 38 37 37 35 31 30 34 37 38 36 34 32 31 31 32 34 33 33 34 34 35 37 37 35 35 35 33 33 33 32
19 19 19 18 17 17 17 18 19 20 19 18 18 20 21 22 22 23 23 24 25 25 25 24 25 25 25 25 26 27 30 33 37 38 39 39 38 34 31 31 34 37 36 33 32 31 28 26 30 31 31 32 32 33 34 33 32 33 33 31 31 31 30
18 18 17 17 17 17 18 19 19 18 16 15 16 19 23 25 26 26 26 27 27 27 26 26 26 26 26 26 26 25 25 27 31 36 40 40 39 37 35 32 34 38 37 34 33 33 29 25 26 28 30 30 30 29 29 30 30 30 30 29 29 30 28
16 16 15 16 16 16 17 18 17 15 14 14 14 17 21 24 27 28 28 29 29 28 28 28 29 29 29 29 29 27 26 25 26 30 38 42 41 38 36 36 35 37 38 37 34 34 33 29 26 25 26 27 28 27 28 29 29 29 29 28 29 30 29
15 14 14 14 14 15 16 15 13 13 14 13 13 15 18 22 25 28 29 30 30 30 30 30 30 31 32 31 32 31 30 28 26 25 31 39 43 42 40 39 37 37 38 38 34 34 34 32 29 26 25 25 25 25 27 29 30 29 29 29 29 30 28
14 14 13 12 12 12 13 12 12 12 13 13 14 16 18 20 22 25 27 29 30 30 29 28 28 30 31 32 33 34 32 31 29 25 25 32 42 47 47 44 41 40 41 39 35 35 36 33 29 27 26 25 24 22 23 25 27 26 27 27 27 26 25
14 14 12 9 9 10 11 11 11 12 13 13 15 17 19 19 20 22 24 25 26 26 27 26 26 27 27 29 32 34 32 31 29 27 25 26 34 44 50 50 47 45 43 39 35 36 36 33 30 28 27 27 27 24 21 20 20 19 20 21 22 23 23
13 14 11 7 8 10 11 10 10 12 12 12 14 17 18 19 20 20 21 23 24 25 25 25 25 25 25 25 28 30 31 31 29 27 26 25 27 34 41 46 46 42 39 37 35 33 33 32 30 29 29 29 29 27 22 19 19 19 19 19 20 21 22
13 12 10 7 7 10 11 10 10 11 12 13 17 19 18 18 21 21 20 21 21 22 22 23 23 23 23 24 22 23 26 28 28 27 26 23 23 27 31 34 34 32 32 32 31 29 29 29 28 29 30 30 29 25 20 19 21 21 21 20 21 22 22
13 11 8 6 7 10 11 9 9 11 14 17 19 19 17 15 15 15 17 18 18 18 19 19 20 21 23 23 19 18 22 24 25 27 27 24 23 25 29 31 29 29 30 30 29 29 27 27 28 29 29 29 26 22 20 21 22 21 20 21 22 23 24
12 11 8 7 7 9 10 11 11 11 14 18 18 16 18 18 14 11 12 14 15 17 19 19 20 20 21 21 18 18 20 20 21 24 26 26 25 26 30 33 31 31 32 31 29 28 27 27 28 29 28 27 24 22 21 21 21 20 20 22 22 23 23
10 11 9 7 7 8 11 14 14 11 12 18 18 14 16 18 16 15 15 16 14 14 16 19 21 21 19 19 18 18 18 18 19 21 23 26 28 28 29 30 32 33 32 30 29 27 25 25 27 28 29 27 24 23 22 22 21 20 21 22 23 23 24
8 10 10 7 7 10 12 14 14 10 12 17 17 13 13 16 17 15 15 15 14 13 13 15 19 21 18 18 18 17 16 16 17 19 22 23 26 28 27 26 29 33 32 30 29 27 25 24 25 27 28 27 25 25 24 24 23 22 23 24 25 26 27
7 10 10 8 8 12 14 14 12 10 12 15 16 15 14 15 17 17 14 14 13 12 12 12 13 16 16 16 15 14 12 13 14 18 22 23 23 25 25 25 27 30 30 28 28 27 25 23 23 24 26 26 26 26 26 26 26 26 27 27 27 28 29
7 10 11 10 11 14 15 15 13 12 12 14 15 15 14 14 16 17 15 14 13 12 11 10 10 11 12 14 14 14 13 12 13 15 19 21 21 21 22 23 26 28 29 29 27 26 25 23 22 22 23 25 26 27 27 28 28 28 29 29 28 28 28
7 10 13 13 14 16 17 17 16 15 14 15 15 15 15 14 14 16 16 16 15 13 12 12 11 11 11 12 13 14 15 16 16 17 19 20 19 19 20 23 25 26 27 27 27 26 26 24 22 22 23 24 25 25 25 26 27 27 27 27 26 25 26
7 10 14 15 16 19 20 19 18 17 16 17 17 16 15 14 14 15 16 17 16 14 12 12 13 14 14 14 14 15 16 17 16 16 17 18 18 19 20 21 23 25 26 26 27 27 26 25 23 23 23 23 23 22 21 22 23 24 23 23 23 22 23
9 13 16 15 16 22 23 21 20 18 18 18 18 17 16 15 15 15 16 17 16 13 11 10 9 11 12 14 15 16 17 17 16 14 12 12 14 18 21 21 20 23 25 26 27 28 27 26 25 25 24 23 21 20 19 19 19 20 20 21 21 20 20
12 17 18 16 18 23 25 23 21 20 19 19 19 19 19 18 16 15 16 18 17 13 10 10 10 9 9 11 12 13 13 14 15 15 13 11 10 13 20 23 23 23 24 25 26 26 27 26 25 24 23 22 21 22 22 20 19 19 19 19 19 21 22
18 19 17 16 19 23 25 23 21 20 20 21 22 22 22 21 19 16 16 20 20 15 11 11 12 12 11 11 11 11 10 11 13 15 16 15 14 13 15 19 21 23 25 25 26 25 25 24 24 23 22 21 21 23 23 23 22 21 20 19 20 23 24
18 17 15 16 19 21 22 22 21 20 20 21 21 21 21 21 18 15 15 19 19 14 11 12 13 13 13 12 10 10 10 10 11 12 13 14 15 16 16 16 17 19 21 23 24 24 22 20 19 19 20 19 20 21 23 24 24 23 23 21 22 23 25
12 12 13 16 18 18 18 19 19 19 19 19 19 19 19 18 14 12 14 17 15 12 11 12 11 10 9 8 8 7 7 8 9 10 10 11 12 14 15 16 17 18 20 21 22 23 24 23 23 24 24 24 23 23 23 25 25 25 25 24 23 24 24
9 11 14 16 17 18 18 18 17 18 19 17 18 19 17 12 9 10 15 14 13 11 10 9 8 5 4 4 4 4 3 3 4 5 7 8 9 11 12 14 16 17 18 20 21 22 24 25 27 29 31 31 29 26 24 26 28 28 26 24 24 24 23
9 12 13 14 15 16 17 16 17 17 17 17 18 18 14 9 9 13 14 13 12 10 9 7 5 4 2 1 1 1 2 2 3 3 3 4 5 7 8 9 11 12 14 16 18 19 21 23 25 27 28 29 28 26 25 28 28 28 26 25 24 24 23
8 10 10 10 11 12 13 15 16 16 16 17 18 16 12 9 11 13 12 11 10 9 7 5 3 2 1 1 2 2 3 4 5 5 5 6 6 6 7 7 8 9 11 12 13 15 17 20 22 24 26 27 27 26 27 30 29 27 26 26 26 26 25
6 8 9 9 9 9 10 12 14 15 16 17 16 14 11 10 10 10 10 10 9 7 6 5 3 2 2 2 3 4 5 5 6 7 7 8 8 8 9 9 10 10 11 12 12 13 13 15 18 20 23 26 28 27 28 32 32 29 27 28 28 27 27
7 7 9 9 8 7 8 9 11 12 14 15 14 12 10 9 9 9 9 9 7 6 6 5 5 4 3 3 4 5 6 7 8 8 9 9 9 9 10 10 11 12 12 12 12 12 12 13 14 16 19 23 27 27 28 33 36 33 29 28 29 28 28
10 9 8 7 7 6 5 6 8 11 12 12 12 12 11 9 8 7 6 5 5 4 4 5 5 4 3 2 3 5 6 8 9 10 11 11 10 9 9 9 10 11 12 12 11 11 11 11 12 14 16 19 23 26 27 31 36 36 31 28 28 28 28

ECMWFFLT1_850_spd_054.txt.gz
Wind_Speed
23 23 23 22 22 21 20 21 21 21 20 21 22 22 22 23 23 24 25 25 26 26 26 27 27 27 27 27 30 33 36 37 37 35 34 33 31 30 28 26 24 27 32 34 34 36 37 34 33 33 31 30 29 25 21 19 17 17 19 21 22 23 26
23 23 23 23 22 20 20 20 20 20 21 21 21 21 21 22 23 24 26 27 28 28 28 28 28 28 27 26 28 31 34 37 38 38 38 37 35 35 34 31 28 28 31 33 33 35 39 37 34 35 34 32 32 32 29 26 23 20 19 20 21 23 25
24 23 23 23 21 20 20 20 20 20 20 21 21 21 21 21 21 23 24 25 27 27 27 28 29 30 29 28 29 30 31 34 37 39 41 40 38 36 36 35 33 31 32 33 33 34 39 40 38 37 36 34 35 36 35 33 30 27 25 24 23 24 26
24 23 23 23 21 20 20 20 19 19 20 20 20 20 20 20 21 22 23 24 25 26 26 27 28 29 29 29 30 30 30 32 35 37 41 43 42 39 37 35 33 33 33 34 33 33 36 40 41 41 38 36 37 39 39 39 37 35 33 31 29 29 29
24 23 23 23 21 20 20 20 19 19 19 19 18 19 19 19 20 21 22 23 23 24 24 25 26 26 26 27 28 29 29 30 32 33 37 41 43 43 41 37 34 33 33 33 34 34 34 37 40 42 43 40 39 42 43 43 43 41 39 37 36 35 34
23 23 23 22 21 21 21 20 19 19 18 17 17 18 19 19 19 19 20 21 22 22 22 23 24 24 24 25 26 27 27 29 31 32 33 35 39 42 43 42 40 38 35 34 35 35 33 34 37 40 43 42 40 41 44 45 46 46 43 40 39 38 37
23 23 23 22 21 21 21 20 20 18 17 17 17 18 19 18 18 18 18 18 19 19 20 20 21 21 22 23 25 25 25 27 29 32 33 33 35 38 40 42 43 41 39 39 39 38 34 32 33 34 36 37 35 35 40 42 43 45 44 40 38 38 37
23 23 22 21 21 21 20 20 19 18 17 17 17 18 18 17 16 16 17 16 16 17 18 18 18 19 19 19 20 22 22 24 26 30 34 35 34 35 36 39 41 42 41 40 40 41 38 32 30 29 29 30 30 30 34 36 35 38 39 36 35 35 35
22 22 22 21 21 20 20 20 19 17 17 18 17 16 16 16 15 16 17 18 18 19 18 18 19 19 18 18 18 18 19 20 22 25 30 33 35 36 36 36 38 39 41 41 40 41 39 33 30 29 27 28 29 30 33 34 33 34 35 34 33 34 35
21 21 21 21 21 20 19 19 18 17 17 16 15 14 15 16 16 17 18 19 21 22 21 20 19 19 19 20 21 20 20 20 21 23 25 27 30 35 37 37 36 35 35 36 37 37 36 33 32 30 28 29 30 30 32 33 32 34 36 35 36 37 36
21 20 19 20 20 19 19 18 17 15 15 12 11 13 17 20 21 21 23 23 24 24 24 22 20 20 20 22 23 23 24 23 23 23 24 26 28 31 34 37 38 37 33 31 30 29 30 32 34 33 31 31 29 28 28 29 27 28 31 34 35 37 35
20 18 18 18 19 18 17 16 14 13 12 10 9 11 16 21 23 25 27 27 27 26 26 25 23 20 20 21 21 22 24 25 25 25 25 27 28 30 32 34 37 39 38 36 33 30 30 31 34 35 34 33 30 25 23 24 25 26 30 32 32 33 33
18 17 16 17 18 17 15 13 11 9 9 9 9 10 14 19 23 26 27 28 28 28 27 26 24 22 21 21 21 21 22 23 25 26 26 26 28 31 33 34 35 37 38 38 38 37 36 35 34 36 36 34 32 27 22 21 23 25 27 28 29 30 29
17 16 14 15 16 16 13 11 8 8 8 8 8 9 13 18 22 25 27 28 28 29 29 27 25 24 22 21 21 22 22 22 23 25 26 27 27 29 32 33 35 37 39 39 39 40 41 39 37 37 38 36 33 31 27 24 23 23 24 25 26 27 26
16 15 13 13 14 14 12 9 8 7 6 6 5 8 15 20 21 22 27 29 29 29 28 26 25 24 22 22 23 23 22 23 23 24 26 27 27 27 29 32 34 35 39 43 43 42 42 41 40 39 39 38 36 33 30 26 24 24 25 25 25 26 26
16 15 13 12 12 13 13 10 8 6 4 2 4 12 18 19 17 15 19 25 28 27 25 23 22 22 21 21 22 21 20 20 22 24 26 27 26 25 26 29 31 32 36 42 46 47 44 42 41 40 39 38 37 33 29 26 24 23 24 26 26 26 25
15 14 13 11 10 11 13 11 8 5 3 1 6 16 17 14 13 11 8 11 16 19 21 22 22 22 21 21 20 19 19 19 21 24 25 26 26 25 26 27 26 28 31 36 43 48 48 45 43 41 38 37 36 31 27 26 27 26 24 26 27 25 22
14 13 11 10 9 9 11 11 9 6 4 2 8 15 14 11 12 11 7 6 6 9 11 14 17 19 21 22 21 19 18 18 21 25 27 27 26 26 27 27 25 25 27 30 35 42 47 48 45 40 38 38 35 30 27 30 32 30 27 26 26 24 22
14 12 10 9 9 8 8 11 11 8 5 4 8 14 14 9 9 11 10 8 8 9 10 10 11 14 18 21 21 20 18 16 19 25 28 27 27 27 27 25 23 24 24 25 28 33 40 47 47 42 40 39 35 31 30 30 30 30 29 28 25 23 22
12 12 9 8 9 9 7 10 12 10 8 8 8 12 13 10 8 9 13 14 14 15 15 13 11 11 13 17 19 21 20 19 20 24 28 29 29 27 23 20 19 20 20 21 23 24 29 38 42 40 39 37 34 33 31 28 27 28 29 29 26 24 24
10 10 8 7 8 10 9 9 10 11 12 12 12 12 13 11 9 8 12 17 18 17 16 15 13 11 11 13 16 17 19 20 21 22 26 29 30 26 21 18 17 17 17 20 23 23 24 28 33 35 36 36 35 34 32 29 27 28 28 28 27 26 26
8 8 6 5 7 9 9 8 9 13 14 14 14 15 13 11 10 9 11 16 18 16 15 15 15 14 12 12 14 14 16 19 21 20 22 26 27 26 25 22 17 14 15 18 22 25 28 29 31 33 35 35 35 33 32 30 29 28 28 28 28 27 27
8 7 6 5 6 7 8 8 10 13 14 14 15 15 14 12 12 12 12 14 16 16 15 15 16 15 14 14 14 15 15 17 19 19 18 19 19 21 25 26 21 17 18 20 20 24 28 31 32 33 33 34 33 32 32 32 30 30 30 29 29 29 29
7 6 5 6 8 7 6 8 11 14 15 15 15 15 15 14 14 14 13 13 14 15 15 16 17 16 16 16 17 17 16 16 16 16 15 15 15 15 19 25 26 22 23 25 24 24 26 30 33 33 31 31 30 29 29 30 30 30 29 29 29 30 31
6 5 5 8 10 9 8 10 13 15 16 16 15 14 14 15 15 15 14 14 14 14 14 15 17 16 15 15 16 17 18 18 17 16 16 17 17 15 15 21 26 25 24 27 27 26 27 29 31 31 29 28 27 27 27 27 28 28 27 27 28 30 32
4 3 6 10 10 10 12 14 15 17 17 17 15 13 13 14 15 15 14 14 14 13 12 13 15 15 14 13 14 16 17 18 18 19 19 19 19 17 14 17 24 26 24 25 26 27 27 28 29 28 28 27 27 26 24 23 24 24 24 25 27 29 32
2 4 8 11 10 11 15 17 17 18 17 16 15 15 15 15 14 12 11 11 11 11 12 13 13 14 13 13 14 15 15 17 17 18 18 18 18 16 13 14 21 27 26 24 24 25 25 25 26 27 28 27 26 24 23 22 23 23 24 25 25 25 27
2 8 10 10 10 13 18 21 20 17 16 16 16 17 18 18 14 10 9 9 9 10 13 14 13 13 14 16 17 17 17 17 17 16 16 16 17 17 15 13 17 25 27 26 24 23 23 23 24 24 24 23 23 23 23 23 24 25 25 24 22 22 23
6 10 9 10 13 18 21 23 22 18 16 16 15 16 18 17 12 11 11 10 10 11 14 14 13 13 15 17 17 17 16 16 15 14 14 14 15 16 15 13 14 18 23 25 25 25 25 25 24 23 23 23 23 23 24 23 23 23 23 23 22 23 23
8 9 11 14 18 21 22 23 22 19 17 16 14 15 17 12 8 9 11 12 12 14 14 13 12 12 14 14 12 11 11 12 12 12 12 13 13 14 14 13 13 14 17 21 23 25 26 27 27 27 26 25 23 22 21 22 21 20 20 22 23 24 25
12 16 17 18 21 23 22 21 19 17 16 14 13 17 17 9 6 11 14 14 14 14 13 12 11 11 11 10 8 7 7 7 8 9 10 11 12 12 13 12 12 13 14 16 18 20 22 24 26 27 28 27 25 21 19 19 20 20 20 22 24 25 26
17 21 21 21 22 21 18 16 15 14 14 14 16 19 15 7 8 14 14 12 12 12 11 11 11 10 10 8 7 6 5 5 5 5 6 7 8 9 10 11 11 12 13 14 15 17 18 20 22 25 27 28 29 28 25 24 23 24 24 24 26 27 28
19 19 18 18 17 15 14 14 14 14 15 16 17 17 13 8 11 14 12 10 11 11 11 12 11 10 9 8 6 5 5 5 5 5 6 7 8 8 9 10 11 11 12 13 14 15 16 18 19 21 24 26 28 30 31 30 29 28 27 26 27 29 31
15 15 14 13 12 12 13 14 14 14 15 16 16 14 11 9 10 11 11 10 9 10 12 12 10 9 8 7 6 5 4 4 5 5 6 7 8 10 11 11 12 13 13 14 15 15 15 16 17 18 21 24 26 28 29 30 31 30 27 26 27 29 30
10 10 10 9 9 10 12 12 13 13 14 14 14 12 10 8 8 9 10 10 10 11 12 12 11 9 8 7 6 5 4 4 4 5 6 6 7 8 10 12 13 15 15 16 16 17 17 17 17 18 18 20 23 25 26 28 29 30 29 28 28 29 29
6 7 8 8 8 9 11 11 12 12 12 12 11 10 8 7 7 8 9 10 10 11 11 11 11 9 8 8 7 5 4 4 5 6 7 8 8 8 9 10 11 12 14 15 16 17 18 18 18 18 18 19 20 22 24 26 27 29 31 31 30 29 30

ECMWFFLT1_850_spd_057.txt.gz
Wind_Speed
26 25 25 25 25 24 23 21 20 20 20 21 21 21 20 21 20 20 20 21 22 22 23 24 25 25 24 24 24 24 24 26 27 30 32 33 33 33 32 30 27 29 34 33 30 32 35 35 36 36 36 36 35 34 32 31 28 24 22 22 21 22 23
28 27 27 26 26 26 24 23 21 21 21 21 21 21 20 20 20 20 20 20 22 23 23 25 26 27 26 26 26 26 25 26 26 28 32 33 33 34 34 33 32 33 35 35 34 35 35 34 35 38 38 37 37 36 34 35 35 31 27 24 22 22 23
29 29 28 28 27 27 25 24 23 22 22 22 21 21 20 20 20 20 20 20 21 21 22 24 26 27 27 26 27 28 27 27 27 28 30 32 34 34 34 34 34 35 36 36 35 36 37 36 36 38 39 38 38 38 36 35 37 37 35 31 26 24 24
30 30 29 28 28 27 26 25 23 23 23 22 21 21 20 19 19 19 19 19 19 19 20 22 24 25 25 25 27 27 27 28 28 29 30 32 33 35 35 35 34 35 34 34 34 35 37 37 36 38 40 40 40 41 39 37 36 36 37 38 34 30 27
30 30 29 29 28 28 27 25 24 23 23 21 20 20 20 19 19 19 19 18 18 18 18 20 21 21 22 24 26 27 27 27 28 28 29 31 33 35 36 36 36 36 35 33 34 34 34 34 36 39 41 40 41 43 43 41 39 37 36 38 39 38 33
30 30 29 29 28 28 27 25 24 23 22 20 19 20 20 19 19 19 19 19 18 17 17 17 18 18 18 21 23 25 25 25 26 26 27 29 31 34 36 37 38 38 37 37 37 36 33 32 34 37 40 40 39 41 44 44 43 42 39 37 39 42 41
30 30 30 29 29 28 26 25 24 23 21 20 19 19 19 19 20 20 20 19 19 17 15 15 15 15 16 17 19 20 21 22 23 24 25 26 28 31 34 38 39 39 38 39 39 38 36 35 33 34 38 39 36 37 40 42 44 45 44 42 41 42 43
30 30 29 29 29 28 26 25 25 23 20 20 19 19 19 19 20 21 21 21 20 17 15 15 15 16 16 16 16 17 17 18 19 21 22 23 24 26 29 34 38 39 40 40 40 40 39 37 36 36 37 37 34 35 38 39 39 43 45 44 43 44 44
29 30 29 29 29 28 26 26 24 21 19 19 19 19 19 20 20 21 21 20 19 18 16 17 17 17 17 16 16 16 17 17 17 18 19 19 20 22 24 28 32 36 39 40 40 41 40 38 39 40 39 37 36 36 38 36 33 36 40 40 42 45 46
29 29 29 28 28 28 27 26 23 20 19 19 19 18 19 20 20 20 20 19 18 17 17 19 20 19 18 17 17 17 17 18 18 19 19 18 18 20 21 24 27 31 35 37 38 39 39 40 43 42 39 38 38 38 37 34 31 33 35 35 38 43 46
28 28 28 28 28 27 27 25 21 19 19 18 17 17 17 18 18 18 17 17 19 19 18 20 22 21 20 19 18 18 18 18 19 19 19 19 20 21 21 22 24 26 29 33 35 36 35 37 41 41 38 38 37 36 35 32 29 29 29 29 30 34 39
28 27 27 27 27 27 27 24 20 19 19 17 16 15 16 18 19 19 18 19 20 22 22 23 23 23 22 21 19 19 19 18 18 18 18 19 21 23 24 25 25 25 25 28 31 33 34 34 34 33 32 34 34 32 30 28 27 27 27 26 25 27 29
27 26 26 26 25 26 26 23 19 18 18 16 15 15 15 17 19 20 22 23 25 26 27 27 27 26 24 22 20 20 19 18 18 18 18 19 22 24 26 28 30 30 30 30 30 32 34 33 31 27 23 22 24 27 29 29 29 29 27 25 24 25 25
26 25 25 24 24 24 25 23 19 17 17 16 16 15 15 17 19 20 22 25 27 29 30 29 29 28 25 23 21 20 19 18 18 18 18 19 21 23 24 26 29 32 33 34 35 36 35 32 31 31 26 18 18 24 29 29 29 29 28 25 23 23 24
25 24 23 22 23 24 24 22 18 17 17 16 16 15 15 15 16 18 20 20 21 22 24 25 26 27 25 23 21 18 17 17 17 17 18 19 21 21 22 22 24 26 30 33 36 38 38 35 32 32 33 30 27 27 29 30 30 29 28 28 27 24 24
24 23 22 21 22 23 23 21 18 18 17 16 16 15 12 10 14 16 16 13 12 14 16 17 18 20 20 20 19 18 16 16 16 16 18 19 20 20 20 20 20 21 24 28 32 35 38 37 34 31 33 34 33 32 32 31 31 31 31 31 30 27 24
23 22 21 21 21 22 22 20 18 18 18 17 16 13 8 12 15 15 14 12 10 10 9 8 10 13 15 17 18 18 17 16 17 19 20 21 22 22 21 20 19 19 21 24 27 31 33 34 33 31 31 32 32 33 33 32 33 34 32 30 29 29 26
22 21 20 20 19 20 21 20 18 17 18 18 16 10 8 12 14 15 15 15 14 12 8 5 6 9 12 16 19 18 16 15 17 21 23 23 23 24 23 22 21 21 21 22 24 27 29 31 32 32 32 33 33 32 32 32 33 33 30 28 29 30 29
21 20 19 18 18 19 19 19 18 18 19 18 15 10 9 11 12 14 16 16 16 16 15 12 12 13 14 15 17 18 16 15 17 21 23 23 23 25 25 22 21 22 22 21 22 23 26 28 31 33 35 36 37 36 35 33 33 33 31 29 30 31 30
20 20 18 17 18 18 18 18 18 18 19 18 14 13 12 11 12 15 16 15 16 20 22 19 16 16 17 18 17 17 16 16 18 21 23 24 25 26 25 23 23 24 24 23 21 20 21 25 28 31 35 38 40 42 40 38 36 36 35 32 31 31 31
19 18 16 15 16 17 17 16 16 18 19 16 14 15 16 15 16 17 17 16 18 21 24 22 17 14 15 17 19 19 18 18 18 20 22 25 27 27 26 25 26 28 28 28 25 21 20 22 24 27 31 36 40 43 44 42 42 40 37 33 32 32 31
18 17 15 14 14 15 15 15 15 16 17 16 15 16 17 18 20 20 16 16 19 22 23 23 19 15 13 14 17 20 21 20 19 19 20 23 26 27 27 27 28 29 31 32 29 23 20 21 23 24 26 29 34 39 42 43 43 41 37 33 32 31 31
16 16 14 13 13 12 13 14 15 15 16 16 17 17 17 18 19 18 16 16 21 23 23 23 21 17 14 13 14 17 20 20 19 19 19 19 21 23 24 24 24 24 26 29 30 25 21 20 22 23 24 24 27 33 38 40 40 38 35 31 30 30 31
15 15 14 13 12 12 12 13 15 17 17 17 17 17 17 17 17 17 16 17 21 23 23 23 21 17 15 15 14 15 17 20 20 19 18 17 18 19 18 16 17 19 20 23 27 26 24 21 21 22 23 23 22 25 30 34 35 34 32 30 29 30 30
14 14 13 12 12 12 12 13 15 16 16 15 15 15 16 17 17 17 17 18 21 23 23 22 19 17 16 15 15 17 19 21 22 22 21 20 19 18 16 14 15 17 20 23 26 27 26 24 23 22 21 20 20 22 24 27 30 31 31 30 30 30 32
13 13 11 10 11 12 12 13 14 14 14 12 13 16 16 15 15 15 17 19 20 21 21 19 16 16 16 17 18 19 19 19 21 22 22 22 22 21 20 18 16 17 21 24 25 27 27 26 24 22 20 18 20 23 25 26 28 30 30 30 30 30 32
13 12 9 10 11 11 12 13 13 13 13 13 15 16 13 11 12 13 13 13 14 15 15 14 14 15 16 16 17 18 18 18 18 19 20 21 22 22 21 20 18 17 20 24 26 28 28 25 22 22 22 20 20 23 26 27 28 29 29 28 28 29 30
13 10 7 10 12 12 13 14 14 15 15 14 15 14 11 11 14 13 8 6 10 11 12 12 13 15 16 16 16 18 18 18 18 19 19 20 21 20 20 19 18 17 19 22 26 29 29 27 23 21 21 20 20 22 25 26 26 27 27 26 26 27 27
15 9 7 11 13 14 15 17 17 16 15 15 14 13 12 14 16 12 6 6 10 10 10 11 13 15 16 17 17 17 17 17 17 17 18 18 18 18 17 16 16 17 17 19 23 26 27 27 25 22 19 18 19 21 23 22 22 23 23 23 23 25 25
13 8 9 12 15 18 19 19 19 17 17 17 15 12 12 14 15 11 7 8 12 14 14 15 16 16 16 15 15 14 13 13 12 13 14 15 15 15 14 14 15 16 16 17 19 23 25 26 26 24 21 19 19 20 21 21 20 20 20 21 22 24 24
10 12 12 14 19 21 21 20 20 19 18 16 13 12 15 15 12 10 11 13 15 17 18 17 17 15 14 14 13 12 10 10 10 10 11 11 12 12 13 13 14 14 14 15 17 20 22 25 26 26 25 23 22 22 22 22 21 21 20 20 22 24 24
16 21 22 22 24 24 22 21 20 18 17 15 14 16 17 12 9 12 15 15 15 15 15 15 15 14 13 13 12 11 9 9 9 9 8 9 9 9 10 11 11 12 13 14 15 16 18 20 23 25 26 26 26 26 26 25 25 24 21 20 22 24 23
23 25 24 24 24 22 21 20 17 15 15 17 18 18 14 10 11 15 15 13 13 14 14 14 14 13 13 13 12 11 10 9 9 9 8 9 9 9 9 9 10 10 11 12 13 14 15 16 18 20 22 24 25 27 28 28 29 28 24 20 21 22 21
24 23 21 21 20 18 17 17 16 15 17 19 17 15 12 10 13 15 13 13 13 13 13 14 14 13 13 13 11 10 10 9 9 9 8 8 9 9 9 10 10 11 12 12 13 13 14 15 16 17 19 20 22 24 26 28 30 31 29 25 23 23 24
22 21 20 20 19 17 17 16 16 17 18 18 15 13 11 11 12 13 13 14 13 12 13 14 14 14 14 13 11 11 10 10 9 9 8 8 8 8 9 9 10 11 12 13 14 14 15 15 16 17 18 19 19 21 22 24 27 30 31 29 28 27 28
19 19 18 18 17 17 16 16 16 16 16 16 14 12 11 10 10 11 12 12 11 11 11 12 13 14 14 13 13 12 11 11 10 8 8 7 7 8 8 9 10 10 11 12 13 14 15 15 16 17 17 18 19 19 20 21 23 25 28 29 29 29 29

ECMWFFLT1_850_spd_060.txt.gz
Wind_Speed
31 31 31 30 30 29 29 29 28 27 27 26 26 25 24 23 23 23 23 21 20 20 20 20 20 21 21 21 22 23 23 23 23 24 24 25 27 29 31 31 30 33 35 31 29 30 30 30 30 30 29 28 28 29 27 26 25 24 23 21 20 21 21
33 32 33 32 32 31 31 30 30 29 29 28 28 27 25 24 23 24 23 22 20 19 19 20 20 20 20 21 22 23 23 24 23 24 25 25 26 28 30 31 31 34 35 34 33 33 33 32 33 35 33 31 31 31 31 31 30 28 27 26 24 23 22
33 33 33 33 33 32 32 32 32 31 30 29 29 28 26 24 24 24 23 22 20 19 19 20 20 20 20 21 23 24 25 25 25 26 27 27 27 28 29 30 32 34 35 36 36 35 34 33 33 35 35 33 32 32 32 33 34 32 31 30 28 27 25
33 34 34 34 34 33 32 32 32 32 31 30 29 28 26 25 24 24 23 22 20 19 19 20 20 19 19 20 22 24 25 26 27 27 28 29 29 29 30 30 31 33 34 34 36 36 35 33 31 33 34 34 34 34 34 34 34 34 35 34 32 31 30
33 34 34 34 34 33 33 32 32 31 31 30 29 28 26 25 25 24 22 21 21 20 19 19 19 19 18 19 20 21 22 24 25 26 27 28 29 30 30 31 32 33 34 34 36 37 36 34 32 32 33 33 34 35 35 35 35 35 35 36 36 35 34
33 34 34 34 34 34 33 33 32 32 30 29 29 27 25 24 23 22 22 22 22 20 19 19 20 19 16 16 18 18 19 20 21 23 25 27 28 29 29 30 31 32 33 35 37 37 37 38 38 36 34 33 33 35 37 37 37 36 35 36 37 38 37
32 32 33 33 33 33 33 33 33 32 31 30 28 26 24 23 22 21 22 22 21 20 19 20 20 19 16 14 15 15 16 18 19 20 22 23 25 26 28 29 30 30 32 34 36 37 38 40 40 39 38 36 33 34 37 38 37 37 36 35 35 37 38
32 32 32 32 33 33 33 33 33 32 31 30 27 25 23 22 22 22 22 22 22 21 21 22 21 19 16 14 13 13 15 18 19 20 20 20 21 23 25 27 28 29 30 31 34 36 37 38 40 41 40 38 35 36 38 37 35 36 38 36 34 34 35
32 32 32 31 31 32 32 32 33 32 30 29 26 24 23 23 23 23 23 23 22 22 22 22 21 18 16 14 13 14 16 18 20 22 22 21 20 21 22 23 25 26 28 29 31 33 35 36 39 40 39 38 39 40 39 36 33 35 37 36 35 36 34
32 32 31 31 31 31 31 31 31 30 28 26 24 23 23 23 23 23 23 22 22 22 21 19 18 17 16 15 16 16 16 17 19 21 21 20 20 21 22 22 23 24 25 26 28 29 30 34 37 39 38 39 40 39 38 36 35 37 37 33 34 38 36
31 31 30 30 31 31 30 30 29 28 26 24 23 23 23 23 23 22 22 22 22 21 18 16 16 16 17 18 18 17 16 16 17 19 19 19 19 20 20 21 23 23 23 24 25 25 25 28 31 31 32 34 36 35 35 36 36 37 35 31 31 35 35
31 30 30 30 30 30 30 29 27 26 24 22 22 22 23 23 22 21 21 21 20 19 17 16 17 18 19 20 19 19 18 17 17 17 19 20 20 20 20 20 20 21 22 23 24 23 23 23 24 24 24 26 27 28 29 31 32 34 34 30 28 30 31
30 29 29 29 30 30 29 27 25 24 23 22 21 21 21 22 22 21 20 20 18 16 15 17 18 20 21 20 20 20 20 19 18 18 19 20 20 21 23 24 24 23 22 22 22 23 23 21 21 21 21 20 18 17 18 21 24 27 30 29 26 26 27
29 29 29 29 29 29 28 26 24 23 22 21 21 21 21 22 22 21 21 19 17 17 18 19 21 22 23 22 21 21 19 19 18 17 17 18 20 21 22 25 26 27 27 27 27 27 24 21 21 22 21 19 17 16 15 16 18 21 23 24 25 26 26
29 28 28 28 28 28 27 25 22 22 21 21 21 20 20 22 21 21 21 20 18 18 19 19 19 20 21 22 21 19 17 16 16 15 15 16 19 21 22 23 24 25 27 30 33 33 27 22 22 22 21 19 18 18 19 18 16 17 19 22 25 28 29
28 27 27 26 26 27 26 23 20 21 21 21 20 21 21 22 21 22 21 18 16 16 16 14 14 15 16 17 16 14 13 13 14 15 16 17 18 19 21 23 24 23 23 25 29 31 29 24 23 23 23 22 20 18 20 21 20 20 22 25 27 30 30
26 26 26 25 25 25 25 21 19 20 21 20 21 21 22 22 22 21 18 15 15 15 14 12 13 15 15 13 12 13 13 13 15 16 17 19 19 20 21 23 23 22 21 21 22 25 27 26 25 25 25 23 22 19 18 23 28 27 26 26 28 30 30
25 25 25 24 23 23 23 20 18 19 21 21 22 21 21 22 20 17 15 15 17 20 20 18 16 16 15 11 11 12 13 14 16 18 18 19 19 20 22 23 22 21 21 21 20 21 22 24 24 26 26 26 24 21 19 24 30 31 30 29 29 30 29
24 24 23 23 21 21 21 19 17 19 21 22 23 23 22 20 16 15 16 17 18 21 23 23 22 20 17 15 14 15 14 14 16 18 20 21 20 22 23 23 22 21 21 21 20 19 18 19 19 21 25 27 28 26 25 26 28 29 32 33 32 30 28
23 23 21 20 20 20 20 19 17 18 21 22 23 24 21 16 14 17 19 19 19 20 22 24 23 21 19 18 19 20 20 19 18 18 20 22 23 24 24 23 22 22 20 20 19 19 19 20 19 18 20 25 28 31 32 31 30 30 31 32 32 30 28
21 22 20 19 19 19 19 18 17 18 20 22 23 24 20 13 16 20 22 21 21 21 22 23 23 22 20 19 19 20 22 23 22 21 20 22 24 24 22 22 23 23 22 22 22 22 22 23 23 22 21 23 26 31 34 35 35 34 34 34 33 31 30
20 20 19 17 17 17 17 17 17 18 20 20 22 23 18 13 17 21 22 23 23 24 25 27 28 27 24 20 18 18 19 21 21 20 20 22 24 24 23 22 23 23 24 24 24 24 24 25 27 25 23 24 26 28 31 35 37 37 38 39 38 35 34
19 19 18 16 15 16 16 16 16 18 19 19 20 20 16 14 16 19 21 22 24 25 26 28 31 30 26 22 20 18 17 18 17 17 19 22 23 22 20 19 18 21 24 25 25 25 26 26 26 24 22 24 26 26 27 30 33 35 38 41 43 41 39
17 17 16 15 14 14 14 14 15 17 18 19 19 18 17 17 19 20 20 20 23 25 26 28 31 30 26 23 21 18 17 18 17 17 21 24 23 22 19 17 15 16 20 23 26 27 26 24 22 20 20 22 23 21 22 24 26 29 33 38 43 45 45
17 16 15 14 13 14 13 13 15 16 17 18 20 20 21 22 21 20 19 19 21 23 25 26 27 26 25 22 19 18 19 20 20 22 24 24 23 23 23 22 21 18 17 18 20 21 22 20 18 17 18 20 19 17 17 20 22 23 25 30 36 42 44
15 14 13 13 12 13 13 13 14 16 17 18 20 21 22 21 20 19 18 17 19 22 23 23 22 22 22 20 18 20 23 24 24 24 24 22 22 22 23 24 25 23 19 17 17 19 19 18 16 17 18 18 18 16 16 17 18 18 18 22 27 32 35
14 13 12 12 12 13 13 13 14 15 16 16 17 17 17 17 16 16 15 17 19 19 19 18 17 16 17 17 19 22 24 24 23 22 21 20 20 21 21 22 24 24 21 18 18 20 19 17 16 19 21 21 19 16 15 14 14 15 15 17 20 24 28
13 11 12 11 10 11 13 14 14 14 14 14 14 13 13 12 10 10 14 16 14 12 12 13 14 14 16 17 18 19 19 19 19 19 19 20 20 20 20 21 21 22 22 20 19 20 20 19 19 21 24 23 20 17 15 14 14 15 15 16 18 21 24
12 11 11 9 7 9 12 13 13 13 13 13 12 11 11 11 9 10 15 14 9 8 10 11 12 14 16 16 16 17 17 17 17 17 18 19 19 19 19 19 18 18 18 18 19 19 19 20 21 22 24 24 22 18 16 15 15 15 15 16 18 20 23
11 12 11 7 6 9 11 13 13 13 13 11 11 11 11 11 10 11 13 11 9 11 14 13 13 14 15 16 17 18 18 16 15 15 16 16 16 15 16 17 17 16 15 15 16 17 19 20 21 22 23 23 22 19 16 14 14 14 15 17 19 21 23
10 11 9 10 11 10 11 13 14 14 12 11 10 10 10 10 11 11 11 11 12 15 17 17 18 19 19 19 20 19 16 14 13 13 13 13 13 13 13 15 17 17 15 15 15 16 17 19 21 22 22 21 21 20 17 14 12 12 14 16 18 20 22
8 9 12 15 13 11 13 15 14 13 11 10 9 9 11 12 12 11 11 14 17 19 20 20 20 20 20 20 19 16 13 13 13 12 12 11 11 11 11 13 14 15 15 15 15 15 16 17 19 22 23 22 22 22 21 19 17 16 16 17 17 18 19
13 17 19 20 20 18 18 17 14 12 11 10 10 12 14 13 11 12 14 16 16 17 19 20 19 18 17 16 15 13 13 13 12 12 11 10 10 10 10 10 11 12 13 13 13 14 14 15 17 19 21 22 23 24 25 24 23 21 21 21 21 20 21
23 24 23 24 24 23 22 21 18 16 15 15 16 16 15 12 11 13 14 13 13 15 16 16 16 16 16 14 13 12 12 12 12 12 11 9 9 9 9 9 9 10 11 11 12 12 13 14 15 16 17 19 21 22 23 24 24 24 24 24 24 24 24
25 24 24 24 23 21 20 20 18 16 16 17 17 15 12 10 11 12 12 12 12 14 14 15 16 16 15 14 12 12 12 12 12 11 10 9 9 8 7 7 8 8 9 10 11 12 13 14 15 15 16 17 18 19 20 21 22 23 23 24 25 26 26
23 23 23 22 21 20 18 16 15 15 17 17 15 11 9 10 10 10 11 11 11 12 12 14 15 15 15 14 13 12 12 12 12 12 11 10 9 8 7 7 7 7 8 8 9 10 12 13 14 15 16 17 17 18 19 19 20 20 21 22 24 25 26

ECMWFFLT1_850_spd_066.txt.gz
Wind_Speed
33 32 33 34 36 36 36 36 35 34 33 33 32 32 31 31 29 28 28 26 25 25 24 23 23 23 21 21 21 18 16 15 16 17 16 13 12 12 12 12 14 16 16 15 14 17 20 23 25 26 24 22 22 23 23 23 23 22 21 21 22 23 23
34 33 32 34 36 36 36 36 35 34 34 34 34 33 33 32 31 29 29 28 27 26 26 25 25 23 22 22 23 22 19 18 16 15 15 14 14 13 13 12 13 14 15 14 13 15 18 20 24 27 28 27 27 26 24 24 24 25 24 22 22 23 24
34 33 33 34 35 36 37 36 35 35 35 35 35 34 34 33 32 31 30 29 29 27 26 26 26 24 22 23 23 23 22 22 21 20 19 19 18 18 17 15 14 14 14 14 13 13 14 16 19 22 27 31 32 31 29 28 27 27 26 25 23 24 24
34 34 33 34 35 36 37 37 36 36 36 36 36 35 35 34 34 32 30 29 29 28 26 26 27 25 24 24 24 23 22 23 23 22 21 21 20 20 21 19 16 15 14 14 14 12 12 14 16 18 21 25 30 33 34 33 32 30 29 29 27 26 25
34 34 34 34 35 36 37 37 37 36 36 36 36 36 35 35 34 33 31 30 30 30 28 28 28 27 25 25 24 23 24 24 23 22 21 21 20 19 20 20 18 16 14 14 15 13 12 13 14 17 18 20 23 27 30 31 32 33 33 33 31 30 28
35 35 35 35 35 36 37 37 37 37 36 36 36 36 35 35 35 33 32 31 30 30 30 29 29 27 26 26 25 24 24 24 23 22 21 20 19 17 17 18 18 17 16 16 16 14 13 13 14 16 19 20 21 23 26 28 29 31 34 36 35 33 32
35 35 35 35 35 36 36 37 37 37 37 36 36 36 36 35 34 33 31 30 30 30 30 29 29 27 26 26 26 25 25 24 23 22 21 20 18 16 15 15 16 17 18 19 18 16 15 14 13 14 17 19 18 19 23 25 27 29 31 33 35 36 35
36 35 35 35 35 36 36 36 37 37 37 36 36 35 35 34 33 32 30 30 30 30 29 29 29 27 26 26 27 25 24 24 23 22 21 20 19 17 15 14 15 17 20 20 21 20 18 15 13 13 14 15 16 18 19 20 22 26 27 28 32 35 36
36 35 35 36 35 36 36 36 37 37 37 36 35 34 34 33 31 29 29 29 30 30 30 29 29 27 26 26 26 24 22 23 23 23 22 22 21 18 16 15 16 18 20 22 22 22 19 18 17 15 13 13 15 17 18 17 18 22 24 24 27 32 34
37 36 36 36 35 36 36 36 36 36 35 34 33 33 32 30 28 27 28 29 29 30 30 29 29 27 26 26 25 23 22 22 22 22 22 23 23 20 18 18 17 18 20 21 23 23 22 21 22 20 17 15 14 14 14 14 15 18 18 18 21 26 29
37 37 36 36 35 35 36 35 35 34 33 32 31 30 30 29 27 26 27 28 29 30 29 29 28 28 27 26 26 24 22 22 22 21 22 24 24 22 20 20 20 20 20 21 22 23 23 24 24 21 19 18 15 12 11 12 13 14 15 15 17 19 20
38 37 36 35 34 34 34 35 34 32 31 30 29 27 27 28 27 26 27 28 28 29 29 28 28 28 28 26 25 23 22 21 21 21 22 24 23 21 20 21 21 21 21 22 23 24 24 24 23 21 19 18 15 11 10 10 10 12 12 13 14 15 14
37 37 36 34 34 33 33 33 32 30 29 28 27 25 24 26 28 28 27 27 27 27 28 28 28 28 27 25 23 22 22 21 20 20 21 21 21 21 22 24 25 24 22 21 22 25 26 24 22 20 17 12 11 11 10 10 9 9 10 12 13 13 13
37 37 35 34 33 31 31 31 29 27 27 26 26 25 24 25 28 30 30 29 27 26 26 27 28 27 26 23 22 22 22 20 19 19 20 20 20 22 23 25 28 29 29 27 25 26 27 24 21 19 16 13 12 12 12 11 11 9 9 11 11 10 11
37 37 35 32 31 30 29 29 27 25 25 25 25 25 24 25 27 29 30 29 28 26 25 25 26 26 24 23 22 22 20 19 19 20 20 21 22 23 24 26 27 29 31 32 30 27 25 23 21 19 17 16 15 13 11 11 11 11 11 12 11 12 14
37 37 34 31 30 29 28 27 25 24 24 24 24 23 24 26 28 29 29 28 26 25 25 24 23 24 24 23 22 21 19 18 18 20 21 22 23 25 26 28 26 23 24 27 27 25 23 21 19 19 19 17 15 12 12 12 14 14 15 15 13 13 14
36 35 32 30 29 28 27 27 25 23 23 23 23 23 24 26 28 29 30 29 27 27 27 25 23 23 23 22 21 21 19 17 18 19 20 19 20 22 24 25 24 21 21 22 23 24 24 21 19 17 16 15 14 13 12 13 16 17 16 16 14 12 12
35 34 31 29 29 27 27 27 25 22 22 23 24 24 26 27 28 29 29 28 27 27 27 25 23 23 22 21 22 20 19 17 17 20 20 18 17 19 21 21 22 22 23 24 23 23 24 24 23 22 19 16 14 13 13 15 15 14 14 16 15 14 12
34 32 29 29 29 27 26 26 24 21 21 23 24 24 26 27 27 27 27 24 23 23 25 25 24 22 21 21 21 18 17 16 16 17 18 17 16 18 19 19 19 19 20 22 23 22 22 22 22 23 24 22 19 17 18 19 17 15 16 17 16 14 11
33 31 29 29 28 26 24 25 23 20 21 23 24 25 26 26 27 27 25 23 21 21 23 26 25 23 23 22 19 16 16 17 17 16 15 15 15 17 18 17 16 15 15 17 18 18 19 20 20 21 23 24 22 22 23 25 24 21 21 21 20 17 13
32 31 29 29 27 25 23 23 22 20 21 23 25 26 26 27 28 27 24 21 21 21 22 24 23 23 24 23 19 17 18 20 19 18 16 15 16 16 17 17 17 17 16 16 15 14 15 17 19 20 22 23 24 25 27 28 29 28 26 25 25 23 19
32 30 28 27 26 25 23 22 21 21 21 24 25 27 28 28 27 25 22 20 20 21 21 21 20 20 23 24 21 20 20 19 19 19 18 18 16 14 15 17 19 19 20 19 18 17 17 17 18 19 20 22 24 25 26 28 29 31 30 28 27 26 24
31 29 28 27 26 24 22 21 20 20 22 24 25 27 30 30 27 24 22 21 21 20 20 20 19 19 22 24 23 22 21 19 20 21 20 19 17 16 16 17 17 18 20 19 17 16 17 18 18 19 19 21 23 25 26 26 27 28 29 29 26 25 24
30 28 27 27 25 23 21 20 19 20 22 24 25 26 30 31 28 24 23 23 21 20 20 19 18 18 21 23 23 23 22 21 21 21 21 20 19 19 18 17 17 16 16 15 14 14 16 18 18 18 18 18 20 22 24 24 22 21 23 25 25 24 23
30 28 27 26 24 21 19 19 19 20 22 23 24 25 27 29 27 24 24 24 23 21 21 19 17 17 20 23 24 24 24 24 23 23 22 22 21 21 21 20 18 17 16 16 14 14 16 19 20 19 17 16 17 18 18 17 17 18 19 22 24 25 26
28 27 27 25 22 19 18 18 19 20 21 22 22 23 26 27 24 22 23 25 24 23 22 20 17 16 18 20 21 21 21 22 22 23 23 22 21 21 23 23 22 21 22 21 18 15 16 20 22 21 19 17 16 17 17 16 15 17 19 20 22 25 27
27 26 25 22 20 18 17 17 19 20 21 21 21 22 24 25 22 21 23 23 21 20 19 18 16 16 17 18 19 19 19 19 20 21 23 23 23 23 24 24 25 25 26 24 21 18 18 19 18 18 19 20 18 16 17 18 18 18 18 19 21 23 25
25 24 22 20 18 16 16 18 20 20 20 20 20 21 24 24 22 22 23 23 21 20 19 18 17 18 18 19 21 22 22 22 22 23 23 23 22 23 24 25 26 27 28 29 27 25 22 20 18 16 17 20 20 19 18 19 18 18 19 18 20 22 24
21 20 19 17 16 16 17 18 19 18 18 18 18 21 24 25 24 23 23 23 22 22 21 20 20 20 20 22 24 25 25 24 23 21 20 20 20 22 24 26 27 27 27 28 28 26 23 21 20 18 16 16 19 21 22 21 20 18 17 18 19 21 22
19 18 16 15 16 16 17 16 15 14 14 15 16 18 20 21 21 21 21 20 20 19 19 19 19 18 19 21 23 24 23 22 20 20 20 19 20 22 22 23 24 24 23 23 23 22 22 21 21 20 19 18 18 18 19 22 24 20 17 17 19 20 21
16 15 13 13 14 15 15 15 16 15 13 12 13 15 15 14 14 14 15 15 15 15 17 16 14 14 16 19 20 21 21 21 21 21 21 19 19 19 19 18 19 19 19 19 19 19 20 21 21 20 20 21 21 20 17 19 22 21 18 17 19 20 21
13 13 11 10 12 15 15 15 16 17 14 11 12 12 12 12 13 13 15 16 16 16 18 19 17 16 18 19 19 20 21 20 21 21 21 19 19 19 19 18 17 17 16 16 16 16 16 16 17 17 17 18 21 22 21 19 19 20 19 18 18 20 20
9 10 12 12 13 15 13 12 14 16 14 11 11 12 12 14 15 17 18 19 18 18 20 21 20 18 18 18 17 18 19 19 20 20 20 19 20 21 20 18 17 16 15 14 14 14 14 14 15 16 16 16 17 20 23 22 21 19 18 18 18 19 19
9 9 11 13 15 14 11 9 10 12 11 10 10 12 15 17 19 20 21 21 21 21 21 21 20 19 18 19 19 19 19 20 21 21 21 22 22 22 20 18 16 15 15 14 13 13 14 15 15 16 17 17 17 18 21 24 24 23 21 20 19 19 18
14 12 12 13 16 17 17 13 10 9 10 10 12 16 17 17 18 19 20 21 21 22 22 22 21 20 21 21 21 22 22 23 23 23 22 22 21 19 18 17 16 15 14 13 13 13 14 15 15 16 17 17 17 17 18 21 24 25 25 24 22 20 18
16 15 15 15 14 15 17 18 15 11 11 13 17 18 16 15 16 17 18 17 18 19 22 23 23 23 24 24 25 25 25 24 22 20 19 18 17 17 16 16 15 15 14 13 13 13 13 13 14 15 16 17 17 17 18 19 20 23 24 25 25 24 23

ECMWFFLT1_850_spd_072.txt.gz
Wind_Speed
34 34 36 38 40 42 43 42 42 41 40 41 42 42 42 41 40 40 40 40 40 39 39 40 39 39 38 37 36 35 34 33 32 31 30 28 27 27 26 25 25 27 28 26 25 24 23 21 22 23 21 21 23 24 24 26 27 26 25 25 27 26 26
32 34 36 37 39 41 43 43 42 42 41 42 43 43 42 42 41 41 40 40 40 40 39 40 40 39 39 37 37 36 34 33 32 32 31 29 28 28 27 26 26 26 26 27 26 25 23 21 21 22 21 20 20 20 19 21 24 27 27 25 26 28 28
31 34 36 37 38 40 42 43 43 42 42 43 43 43 43 42 41 41 41 40 41 40 39 39 40 40 39 38 38 37 36 34 32 32 31 30 28 27 26 26 26 25 26 27 27 25 23 21 20 21 20 19 18 18 18 18 20 22 26 26 27 28 29
33 35 36 36 37 39 42 43 43 43 43 43 44 44 44 43 42 41 41 40 41 40 39 40 40 40 40 39 39 39 38 36 34 33 32 30 28 27 26 25 23 23 25 27 27 25 22 20 20 20 19 18 18 17 17 18 17 18 21 24 26 28 29
37 37 37 37 37 38 41 42 43 44 44 43 44 44 44 44 42 41 40 40 40 40 40 40 40 40 40 40 40 40 39 38 36 35 34 32 29 27 26 25 22 22 24 26 27 25 22 20 19 19 18 17 16 16 16 16 16 16 17 20 23 26 28
40 40 39 39 38 38 39 42 43 44 44 44 43 44 44 44 43 42 41 40 39 39 40 40 41 40 40 40 40 40 39 38 37 37 36 34 31 29 28 27 26 25 26 26 26 24 22 21 19 18 17 15 14 14 15 15 16 15 14 16 20 23 27
42 40 39 40 40 38 38 40 42 43 44 44 44 43 44 43 42 42 41 41 40 40 40 40 40 40 39 39 39 38 37 37 37 37 36 34 33 33 32 31 29 28 27 26 25 24 23 21 19 18 16 14 13 13 14 14 16 15 12 11 14 18 22
39 38 39 40 41 40 38 39 42 43 44 44 43 43 43 43 42 41 41 41 41 40 40 40 40 40 40 39 39 38 38 37 37 37 36 34 34 34 34 32 30 29 28 27 26 25 23 22 20 18 16 15 13 13 10 9 12 13 12 11 10 13 16
41 41 40 40 42 41 39 39 41 43 44 44 44 43 43 43 42 41 40 40 41 41 41 41 41 42 41 41 40 39 39 39 38 38 37 35 34 34 34 34 32 30 30 29 28 26 25 23 22 19 16 15 12 10 9 9 11 13 13 13 12 10 11
47 45 43 43 45 43 41 40 41 43 44 43 44 44 44 43 42 41 40 41 41 41 41 42 42 42 42 42 40 40 39 38 37 37 37 35 34 34 35 34 33 33 32 31 29 28 26 25 23 19 15 12 9 7 8 9 11 12 11 11 12 10 7
51 49 48 48 48 46 43 42 42 42 41 40 41 42 43 44 43 41 41 41 41 41 41 41 40 41 41 41 41 39 37 36 35 36 36 35 34 34 34 33 33 34 34 32 31 29 27 26 23 18 14 12 9 7 8 9 8 8 9 10 11 10 5
52 52 51 50 49 47 45 43 43 42 40 38 38 38 40 42 42 41 41 41 41 41 40 39 38 38 38 38 38 38 37 36 35 34 34 33 32 32 31 31 31 32 33 32 31 29 28 26 22 18 15 12 8 7 7 8 7 6 7 7 8 9 6
48 49 49 49 48 47 46 44 43 41 38 37 36 35 37 40 40 39 39 39 40 41 40 38 36 35 35 35 35 35 36 37 37 35 34 32 30 30 29 29 30 31 31 30 29 30 30 26 22 18 15 10 7 7 7 7 6 5 7 8 8 9 7
45 45 45 45 45 45 45 44 43 40 36 34 33 32 34 38 39 39 38 38 39 40 40 39 37 35 34 33 33 32 33 34 36 37 36 34 32 31 30 29 29 30 30 29 30 31 30 26 23 20 16 11 8 7 8 8 8 8 10 12 11 11 10
41 40 39 39 40 41 42 42 40 37 33 32 32 31 32 36 38 38 38 38 39 39 38 37 36 35 33 32 32 31 30 31 33 35 36 37 36 34 34 33 32 31 30 30 31 31 30 27 25 22 17 13 10 10 10 10 11 11 13 14 13 13 13
39 38 37 36 36 38 39 39 37 34 31 29 30 30 32 34 36 37 38 39 40 39 37 35 34 33 30 29 30 30 29 29 30 32 34 35 36 36 36 37 36 34 32 31 30 31 30 28 26 23 20 15 11 11 11 11 13 14 14 14 14 14 13
38 37 36 36 36 36 36 35 33 30 29 29 29 30 32 33 34 36 36 37 38 38 37 35 33 31 28 27 28 29 29 28 28 30 31 31 33 36 38 38 37 34 33 31 30 29 28 27 24 21 17 14 13 12 10 10 13 14 13 13 14 13 11
37 36 35 36 36 34 33 32 31 28 27 28 27 28 30 31 32 33 32 32 35 36 35 35 33 30 29 28 27 28 29 28 28 29 30 28 30 34 37 37 36 34 31 30 28 27 26 25 23 18 13 11 12 14 14 12 12 11 11 11 11 11 10
37 36 35 35 34 31 30 30 29 26 24 26 26 27 28 30 32 34 32 31 32 32 31 30 29 27 27 28 26 25 26 27 28 30 30 27 28 33 36 35 33 31 29 27 26 26 26 26 26 22 19 16 13 14 16 17 14 12 12 12 11 9 8
36 36 37 35 31 29 28 28 27 25 23 23 24 26 27 29 33 36 37 36 35 32 30 28 28 27 27 27 26 24 24 26 28 31 31 28 28 32 34 32 30 29 26 24 23 24 25 25 26 25 25 25 22 18 18 19 19 17 16 15 13 10 9
34 36 36 32 28 27 27 26 26 25 22 22 23 23 25 28 32 35 37 38 37 35 34 33 33 33 31 29 27 26 26 26 27 30 31 29 29 31 30 27 27 25 22 21 21 21 22 22 23 24 25 25 25 24 21 21 22 21 19 19 17 14 12
34 35 32 28 27 27 26 26 25 25 23 21 21 21 23 26 31 33 35 36 36 35 35 34 33 32 31 29 29 28 27 27 26 28 30 29 28 28 26 24 23 22 21 21 20 20 20 20 20 22 22 22 22 23 22 22 23 24 23 21 19 17 14
33 33 29 26 26 27 27 26 25 24 23 20 19 20 22 24 28 30 32 34 34 34 33 32 31 29 28 27 27 28 29 29 27 28 30 29 26 26 26 25 24 22 22 22 21 20 20 20 20 20 20 19 19 19 19 19 20 22 22 21 19 18 16
33 31 27 26 26 26 27 27 25 24 23 20 17 18 21 23 25 27 28 31 33 32 31 31 30 27 25 24 24 25 27 28 29 29 31 30 27 25 25 26 25 22 21 21 21 21 21 21 21 19 18 17 17 16 17 17 17 19 19 19 19 18 16
32 30 26 26 26 26 26 26 26 24 22 20 18 17 19 22 24 24 24 27 29 28 26 26 25 23 23 23 23 23 23 25 28 30 32 32 29 28 27 27 25 24 23 22 22 21 21 21 20 18 17 16 15 15 16 17 17 18 18 18 18 18 17
32 29 26 26 25 25 25 24 24 23 21 18 17 16 17 21 24 24 24 25 26 25 23 22 22 22 21 21 20 20 21 23 27 30 32 31 30 29 28 28 27 27 27 25 23 21 20 19 18 17 16 14 14 14 14 13 14 16 17 17 17 16 16
32 28 25 25 25 24 23 23 22 21 19 17 15 14 15 19 22 24 26 26 26 25 23 20 20 21 20 18 18 18 19 23 27 29 30 30 29 28 27 26 26 26 24 22 19 19 20 19 17 15 13 13 13 13 13 11 11 12 14 15 15 15 15
33 29 26 24 24 23 22 21 20 18 16 15 13 12 13 17 20 23 26 29 28 26 23 19 18 19 20 19 18 17 19 23 26 26 27 27 27 26 25 25 24 22 20 19 16 15 18 20 19 16 14 13 11 11 11 11 10 10 11 12 14 16 16
32 29 27 24 22 20 19 19 18 13 9 9 8 7 9 11 14 18 23 28 30 27 24 21 19 19 20 20 18 16 17 21 23 23 23 23 22 22 23 23 22 19 19 20 17 14 15 18 19 18 17 16 14 11 11 12 11 11 12 13 14 16 17
27 24 22 22 21 18 15 15 14 9 4 5 7 6 5 6 8 12 17 24 28 27 25 24 21 20 19 18 15 14 17 20 20 19 19 18 18 19 20 21 21 19 19 21 21 19 17 17 18 18 18 18 17 14 12 13 14 14 13 15 16 16 17
19 15 14 18 20 17 14 15 15 8 7 7 9 10 9 7 6 8 11 18 24 24 23 22 20 19 18 17 15 15 18 19 17 17 18 18 18 18 19 20 20 20 20 21 22 22 21 20 21 21 21 21 20 18 16 15 16 15 12 14 17 17 17
15 12 9 12 17 18 15 15 14 5 10 10 7 9 12 11 9 8 9 13 19 22 21 19 18 17 16 16 17 18 18 17 16 16 19 20 19 19 19 20 20 21 21 21 22 22 22 22 22 23 23 23 22 21 20 18 17 16 13 13 15 16 17
11 12 10 8 11 14 14 14 10 2 9 7 3 6 11 12 10 10 10 13 17 19 17 16 16 16 16 17 19 20 19 18 16 15 16 17 17 18 20 21 20 20 20 19 20 21 22 22 23 24 24 22 20 20 21 21 20 18 16 16 15 15 16
8 6 9 12 9 8 9 10 7 4 4 2 2 6 12 12 11 12 12 13 15 15 14 13 13 14 14 15 16 18 18 18 17 16 16 17 18 19 20 20 20 20 19 19 19 21 22 23 25 25 24 23 22 23 24 24 24 21 18 19 19 17 15
14 8 12 16 10 4 3 4 2 2 1 4 1 11 15 14 13 14 13 13 14 15 15 14 13 13 14 14 15 16 17 17 16 16 18 19 20 20 20 20 20 20 20 19 19 20 20 20 21 22 22 23 25 25 26 26 27 26 22 20 19 19 18
20 13 14 13 8 3 3 2 5 4 1 3 9 14 15 14 13 13 13 13 14 14 14 15 15 16 16 17 17 17 17 17 17 17 19 20 20 21 21 21 21 21 20 19 18 18 18 17 18 19 20 22 24 25 26 26 27 29 28 24 21 19 18

ECMWFFLT1_850_spd_075.txt.gz
Wind_Speed
43 45 45 44 43 43 41 38 35 33 30 29 32 34 38 43 45 45 46 46 45 45 45 45 46 46 46 44 44 44 44 44 44 43 42 42 41 39 38 37 36 38 39 36 32 29 25 24 24 23 22 22 22 22 22 22 23 24 25 26 27 28 28
37 39 42 43 43 42 39 37 36 35 31 29 31 33 36 41 45 46 47 46 46 46 45 46 46 47 46 44 44 44 44 44 43 43 42 42 42 42 41 40 39 38 39 37 34 30 26 25 24 23 21 21 22 22 22 22 22 22 23 23 24 27 28
37 37 39 41 42 41 40 41 41 39 34 32 32 33 35 39 44 47 47 47 47 46 45 46 47 47 46 44 44 45 44 44 43 42 42 42 42 42 42 40 39 39 38 37 35 31 28 26 24 22 21 21 21 22 22 22 21 21 21 21 21 24 26
44 41 39 40 41 42 43 43 42 39 35 33 33 34 36 39 42 47 48 48 48 47 46 46 47 47 45 44 44 45 44 44 43 42 42 41 40 40 41 40 39 38 37 36 35 33 29 26 25 22 21 20 21 21 21 21 21 20 19 18 18 21 24
52 50 47 44 42 42 41 41 39 37 36 35 34 36 39 40 41 46 48 49 49 48 47 47 47 47 45 44 44 45 44 44 43 43 42 41 39 39 40 39 39 38 37 35 35 34 30 27 26 23 21 20 20 21 21 20 19 18 18 17 16 17 21
53 53 52 50 48 45 43 42 41 40 39 39 38 39 41 41 41 44 47 49 49 48 47 47 48 47 46 45 45 45 44 43 43 42 42 41 40 38 39 39 39 38 36 35 35 33 31 29 27 24 21 19 19 20 20 20 19 17 14 14 14 14 16
51 51 50 50 49 49 48 47 47 46 44 43 42 42 42 41 40 43 46 48 48 48 47 47 48 47 46 45 45 45 44 43 43 42 42 41 40 39 39 39 39 37 35 34 33 32 31 30 28 26 23 19 18 20 20 19 17 16 13 12 12 13 13
49 50 50 49 48 48 47 47 49 49 48 47 44 42 42 41 41 42 45 48 48 47 47 47 47 47 46 45 45 44 44 43 43 42 42 42 41 40 40 40 38 37 35 34 34 33 32 31 30 28 24 20 18 19 18 14 13 15 14 13 13 13 12
49 49 49 49 48 46 44 44 46 47 48 48 46 44 43 43 43 44 45 47 47 47 46 46 46 46 46 45 44 43 44 43 43 43 43 42 41 41 42 41 40 39 37 35 35 35 34 33 33 30 26 21 18 17 15 12 13 14 14 14 14 12 10
50 48 47 47 47 44 42 42 43 43 44 44 43 43 44 45 45 44 45 46 46 46 45 45 45 45 45 44 44 43 43 43 42 42 43 42 42 41 41 40 40 41 40 38 37 38 37 36 36 32 26 21 17 15 15 13 12 12 11 12 13 9 5
51 48 47 45 44 42 41 41 41 40 40 41 42 44 45 46 46 45 44 45 46 45 44 44 43 44 44 44 44 43 43 43 41 38 38 39 40 40 40 39 39 40 41 41 41 40 39 38 37 33 26 21 17 15 15 13 11 10 9 8 9 8 4
50 47 44 42 41 40 40 40 39 37 38 40 42 44 44 45 45 45 45 45 45 44 43 42 42 42 43 43 43 42 42 42 40 37 34 33 34 36 37 38 39 40 40 42 42 42 40 38 37 32 25 20 17 14 13 12 10 8 6 5 8 9 6
47 45 43 41 41 40 39 39 38 37 37 38 37 38 39 40 42 44 44 44 44 43 42 42 41 41 42 42 43 42 42 42 42 40 38 35 33 33 33 33 34 36 39 40 41 41 40 37 35 31 24 17 15 13 12 12 10 7 5 7 10 11 10
46 45 44 42 40 39 39 38 38 37 36 35 34 33 34 36 39 41 42 43 43 42 42 41 41 41 41 42 42 42 42 42 41 41 41 40 36 34 33 32 31 31 33 35 37 38 37 35 33 29 22 16 14 13 11 10 8 6 7 10 12 13 13
48 46 45 42 40 39 39 36 35 35 35 34 33 32 32 33 36 38 39 41 42 41 40 40 40 41 41 41 41 41 40 39 39 39 40 41 40 36 33 33 34 33 32 31 33 34 35 33 31 27 22 19 17 15 12 10 9 9 10 13 14 13 12
48 46 45 43 40 40 40 36 33 33 34 34 32 31 30 31 33 35 35 37 39 40 39 39 39 39 39 39 38 37 36 34 33 35 36 39 42 41 37 35 35 33 32 31 31 32 33 32 29 26 23 21 20 16 13 12 12 13 13 14 14 11 8
47 46 45 43 40 39 40 38 35 34 34 34 30 27 27 29 30 31 31 32 35 37 38 38 37 37 37 37 35 34 31 28 28 31 33 35 38 41 43 41 38 33 29 29 29 29 29 29 26 25 24 24 22 17 14 14 15 14 13 13 12 9 7
47 46 44 43 42 39 37 38 38 35 33 31 26 23 24 26 28 29 28 28 29 31 33 35 35 36 37 36 34 32 29 26 26 29 32 33 33 36 40 44 44 39 33 29 28 27 26 24 23 22 22 22 21 18 17 17 16 11 8 9 9 8 7
46 46 43 41 40 36 34 38 38 32 27 26 24 21 21 23 25 26 26 25 26 26 28 31 33 35 36 35 34 32 29 26 25 28 31 33 34 35 36 38 40 42 40 35 31 29 27 26 24 22 22 20 19 19 21 20 17 12 10 10 9 8 7
45 45 43 40 38 34 34 37 34 27 24 24 23 21 20 20 22 24 25 24 24 25 28 31 33 34 34 34 32 31 29 27 26 28 31 33 35 37 36 33 32 35 38 38 35 34 32 30 27 26 24 20 17 18 20 21 20 17 15 14 12 11 10
44 44 42 39 36 35 35 34 30 25 24 23 22 21 19 18 19 21 24 24 24 26 29 31 31 32 32 31 29 27 28 27 26 28 31 34 36 37 34 31 29 28 30 35 37 35 33 32 30 29 27 23 21 19 18 19 21 19 17 17 16 14 14
44 43 42 39 36 35 36 33 27 25 24 22 21 20 18 16 16 17 20 23 24 27 29 29 30 30 29 28 27 27 27 27 26 27 30 33 35 33 30 29 28 24 24 30 33 32 30 29 29 29 29 28 29 27 24 22 23 22 20 20 19 17 16
44 44 43 40 37 36 36 33 28 25 24 22 21 19 17 15 14 14 17 21 25 27 28 28 28 28 27 25 25 26 27 27 27 27 29 30 31 29 27 27 26 23 21 24 28 29 27 26 27 27 27 28 29 30 29 27 25 23 22 21 20 19 16
45 44 42 40 39 37 35 33 29 26 23 21 20 19 17 15 14 14 15 19 23 25 28 30 30 29 28 26 25 26 27 27 28 29 29 28 28 27 27 27 26 23 20 21 25 27 26 24 25 25 25 24 24 26 27 26 24 23 22 21 20 19 15
44 42 41 40 39 38 36 33 30 27 22 19 18 17 16 15 15 14 13 16 21 23 24 27 28 28 28 27 26 26 26 26 27 29 29 27 26 26 27 28 28 25 22 21 22 24 24 23 23 23 22 21 20 21 23 23 23 23 22 20 20 18 15
43 42 42 41 40 38 37 34 30 27 22 17 15 13 12 12 16 18 16 13 17 21 22 21 22 23 24 25 24 24 24 24 23 25 27 27 27 26 27 28 28 27 25 23 22 22 22 21 20 20 20 19 19 20 21 22 22 22 21 19 18 18 16
43 43 43 42 42 40 37 32 29 25 21 16 13 11 9 10 14 21 24 19 14 16 18 18 18 17 18 21 21 20 22 23 22 22 24 26 27 27 28 29 28 26 26 25 23 21 20 19 17 18 19 19 19 19 18 19 19 19 19 17 16 15 15
44 44 42 41 40 37 32 27 24 21 18 13 9 8 7 9 13 19 25 25 19 14 14 15 15 14 15 18 19 19 19 20 21 22 23 24 26 27 28 28 27 27 27 26 23 20 19 18 17 17 17 19 19 18 17 16 16 17 17 16 15 14 13
40 39 38 37 34 29 24 22 21 19 15 10 8 8 6 6 10 15 20 25 25 19 14 14 15 13 13 16 18 19 19 18 19 21 21 22 25 27 28 28 28 29 29 27 26 25 22 19 18 17 16 18 19 17 16 15 15 15 14 13 12 12 11
30 30 29 31 30 26 22 20 19 17 13 10 11 12 10 7 5 7 11 18 24 23 17 17 18 16 14 15 16 16 17 17 19 20 21 22 25 27 28 28 28 28 29 28 28 26 23 20 21 19 17 17 17 15 14 14 13 13 13 12 12 12 12
21 22 23 25 28 28 22 18 16 16 14 13 14 14 12 11 8 6 6 10 18 22 18 17 19 18 15 14 14 14 13 13 15 17 19 21 23 25 27 28 26 25 25 26 24 20 17 19 22 21 19 19 18 17 16 12 9 10 12 13 13 15 15
21 22 22 23 28 29 21 15 13 14 9 6 6 6 7 9 10 10 9 8 13 19 18 17 19 19 16 14 13 11 9 10 14 18 19 21 22 23 25 26 25 23 23 24 22 19 17 19 20 19 19 19 18 18 16 13 11 12 14 12 12 14 16
22 25 26 25 28 29 22 13 9 10 7 4 4 4 3 3 5 7 9 9 12 17 18 18 19 18 14 11 10 9 9 11 15 17 17 18 20 20 20 21 21 21 20 20 20 19 18 18 18 16 16 16 16 17 16 14 15 17 16 14 13 12 14
23 26 30 30 29 29 26 16 9 8 10 9 7 5 3 3 3 6 8 9 11 14 16 16 16 13 10 9 9 10 12 15 14 13 14 17 18 18 17 16 17 19 19 19 19 19 18 18 18 17 17 16 16 17 18 18 20 21 19 18 16 14 12
31 29 31 31 28 28 29 24 17 13 12 11 9 4 1 1 3 8 13 13 11 11 13 13 14 13 12 12 13 14 16 17 16 15 16 17 17 17 15 14 13 14 15 16 16 16 16 16 16 17 17 17 18 20 21 21 20 21 21 20 19 18 16
37 32 29 27 25 26 27 26 22 19 17 18 17 11 7 9 12 15 17 15 12 11 11 10 11 11 10 10 11 11 12 13 14 14 13 12 11 10 9 10 11 12 12 13 13 13 14 15 15 16 17 19 20 21 22 21 19 20 22 21 19 19 19

ECMWFFLT1_850_spd_078.txt.gz
Wind_Speed
47 47 47 47 46 46 46 47 43 39 36 35 38 42 45 46 45 44 44 42 39 38 37 37 39 42 45 45 44 44 43 43 42 42 42 42 42 42 42 42 41 44 47 44 41 41 40 36 33 31 30 29 28 26 25 26 26 26 26 27 27 27 26
46 46 46 46 46 46 46 47 47 46 43 40 38 39 42 44 45 45 46 45 42 40 38 38 39 41 43 44 44 44 43 44 43 42 42 42 42 43 43 41 41 43 44 43 41 40 41 39 37 36 33 30 29 27 27 27 26 26 26 26 27 27 26
46 47 47 47 47 46 46 46 46 47 46 44 42 40 41 43 45 47 47 46 44 42 40 39 39 40 42 43 44 45 44 44 44 43 43 43 42 43 43 42 41 42 43 42 40 39 41 40 39 37 33 30 29 28 27 27 26 26 26 25 25 26 25
46 46 47 48 48 48 47 47 47 48 48 46 43 43 43 43 45 47 48 47 45 43 41 41 41 41 41 42 44 45 45 44 44 44 44 43 43 42 42 41 41 42 42 41 39 39 41 41 39 37 33 30 29 28 27 26 26 26 26 24 24 24 24
47 46 46 47 48 48 49 49 49 49 49 49 46 44 44 45 46 47 48 48 47 45 43 43 43 43 42 42 44 46 46 45 44 44 43 43 43 42 42 41 40 41 41 41 40 40 40 41 40 37 34 30 29 28 27 25 25 25 24 24 24 23 22
49 48 47 47 47 48 49 50 50 49 48 49 48 47 45 45 47 48 49 49 49 48 46 45 45 44 43 43 45 46 46 45 44 44 44 44 43 42 41 41 40 40 39 40 41 40 40 41 41 38 35 31 28 28 26 25 26 24 23 23 23 21 19
51 50 49 49 48 48 48 48 48 48 47 47 46 46 45 45 46 49 50 50 50 50 48 47 47 46 45 45 46 47 47 46 44 44 44 44 42 41 41 40 40 39 38 39 39 39 39 40 40 38 35 31 29 28 27 26 25 24 22 21 20 19 18
52 51 51 50 49 48 47 47 46 45 45 45 43 41 41 42 44 46 48 50 51 51 50 49 48 46 46 45 46 47 47 46 45 44 44 43 41 40 41 40 39 38 38 38 38 38 38 37 38 38 34 31 29 28 27 24 23 23 23 20 19 18 18
51 51 50 50 49 47 46 45 44 43 42 41 40 38 38 39 40 42 44 47 49 50 50 49 48 47 46 45 46 46 46 45 45 44 44 42 40 40 40 40 40 39 38 38 37 37 36 36 38 38 35 32 30 29 26 22 21 23 21 19 19 17 15
50 49 48 48 48 47 45 44 43 42 40 38 38 38 39 40 41 41 42 45 48 49 50 49 49 48 45 44 44 45 46 45 45 45 44 43 41 40 40 39 39 39 39 38 38 37 36 36 38 39 36 33 30 29 26 23 21 22 19 18 18 15 12
48 47 46 45 46 46 45 44 43 41 40 39 38 38 38 39 40 41 41 43 46 47 48 47 47 46 45 43 43 44 45 44 44 44 43 42 41 42 42 41 40 39 38 38 38 37 36 37 39 39 37 34 31 29 26 23 21 20 19 17 16 13 10
47 46 45 45 45 45 45 44 42 40 39 39 38 37 37 38 39 40 41 42 44 45 45 44 44 44 43 42 41 41 42 42 42 40 39 38 38 39 40 40 41 40 39 39 38 37 37 38 38 39 38 34 30 28 25 22 20 19 18 16 14 13 12
46 46 45 45 45 45 45 44 42 39 37 36 37 37 36 37 39 40 41 43 43 45 45 45 44 43 42 41 40 40 41 41 40 39 38 37 36 36 36 36 37 38 38 38 38 38 39 38 37 39 38 33 29 27 25 22 20 18 17 15 13 13 14
46 46 45 45 46 46 46 44 40 37 34 33 33 32 32 34 37 39 39 40 39 40 42 43 43 42 41 40 39 39 39 40 40 39 38 37 37 37 36 35 34 32 32 33 35 36 37 36 36 37 35 31 29 27 24 21 17 16 14 13 13 15 14
47 47 46 46 45 46 46 42 38 35 32 30 29 28 30 34 37 38 38 37 35 34 35 37 39 39 39 40 39 38 38 38 39 38 38 38 38 38 38 37 36 33 30 29 31 32 30 30 32 34 34 33 31 27 23 18 15 13 12 12 14 15 11
47 47 47 46 45 45 46 42 37 33 29 27 27 29 32 36 37 37 37 35 33 32 30 31 34 36 38 39 38 37 35 35 36 37 37 37 38 38 40 40 40 38 35 31 31 31 30 28 29 30 30 31 30 26 23 19 16 15 15 15 16 14 7
48 47 47 47 45 45 46 43 38 32 28 26 27 30 33 36 36 35 34 32 30 29 27 28 30 33 36 38 37 34 31 30 32 34 35 36 37 38 40 41 41 40 39 36 31 30 31 30 29 28 27 27 27 26 24 22 20 19 17 16 16 12 5
49 48 47 46 45 44 45 44 39 32 28 28 29 30 33 34 33 31 30 28 25 23 23 24 26 30 34 35 34 31 26 25 28 31 31 31 32 34 36 37 37 36 37 38 32 27 29 29 26 25 24 23 23 24 24 25 24 21 17 16 15 9 4
49 49 48 46 45 44 43 43 40 33 28 28 30 31 31 31 29 28 26 23 20 19 20 22 26 29 31 32 31 28 25 23 25 29 29 27 27 29 31 31 30 30 34 38 34 27 26 27 25 23 21 19 19 21 23 23 23 21 17 16 13 7 5
48 50 49 47 46 44 41 40 38 33 29 29 31 29 28 27 26 24 22 19 18 18 20 22 26 28 29 29 28 26 24 23 23 25 27 27 27 29 28 27 26 26 29 36 39 34 28 25 23 24 24 22 19 20 22 24 23 21 18 16 14 10 9
48 49 49 48 46 45 42 39 38 36 33 31 30 27 25 24 23 20 18 17 17 19 20 22 25 27 27 26 25 24 24 22 22 23 25 26 27 26 25 25 26 24 23 27 34 38 37 31 24 21 22 24 23 20 21 24 25 23 20 19 17 13 12
49 49 49 49 48 47 45 42 41 40 37 32 29 27 24 22 20 16 15 16 16 18 19 20 23 24 25 24 23 23 23 22 22 23 24 25 25 23 21 21 23 22 21 21 24 30 36 39 34 25 20 20 22 22 21 23 26 25 23 20 17 14 13
49 49 49 50 50 49 48 46 44 42 36 29 26 24 22 20 17 14 13 14 15 17 18 19 21 21 21 21 21 21 21 21 21 22 22 23 23 22 20 20 21 21 20 20 20 21 27 34 38 36 29 24 24 25 23 22 24 25 23 19 16 15 15
49 48 49 51 52 50 48 46 44 39 31 25 22 21 20 19 16 14 12 11 12 16 18 18 19 19 18 18 19 19 20 20 20 20 21 22 21 21 20 22 24 23 20 20 20 20 22 28 33 36 36 35 33 31 26 22 21 22 21 19 18 18 17
48 48 50 51 51 50 48 45 43 36 27 22 20 18 16 16 14 14 14 10 7 12 17 17 15 15 15 15 16 17 18 19 19 20 21 21 21 20 20 23 26 26 23 21 20 19 21 25 27 29 33 36 36 33 29 26 24 23 22 21 21 20 18
48 50 51 50 48 48 46 44 43 36 25 21 20 16 12 12 14 16 17 13 7 7 13 14 13 12 13 14 16 17 17 18 18 18 19 20 20 21 21 23 26 27 26 23 20 18 20 23 24 24 26 27 28 27 27 28 28 27 26 25 24 22 20
48 49 49 46 45 45 44 45 43 34 23 20 18 12 8 8 10 14 17 16 10 7 9 12 13 12 12 13 15 16 17 19 20 20 19 19 20 22 22 22 24 26 25 23 20 18 18 19 20 20 20 20 21 22 24 27 28 29 28 26 24 22 21
47 46 43 41 42 43 44 46 43 31 19 16 13 10 11 9 6 8 13 16 13 8 8 9 11 13 14 14 14 15 17 18 19 21 20 18 18 22 23 22 22 25 25 22 20 17 16 16 17 18 19 20 22 23 24 26 26 26 26 24 23 22 20
42 40 38 38 39 42 46 50 45 30 17 13 11 11 13 12 8 6 8 14 15 10 8 9 10 13 14 14 14 14 15 15 15 16 17 16 17 22 24 22 22 24 25 24 21 18 17 17 17 18 19 20 22 23 23 22 22 22 22 22 21 19 16
33 33 34 34 36 40 43 46 42 27 15 11 10 9 12 11 7 6 4 7 14 15 11 8 10 13 12 11 11 12 14 13 13 13 15 14 16 20 23 23 22 23 24 24 22 20 19 19 19 20 19 19 21 22 22 21 20 21 21 20 19 16 14
28 28 29 31 34 38 39 41 41 30 17 12 9 6 6 7 4 3 4 2 6 13 14 10 8 11 10 7 8 11 12 12 12 12 13 14 16 19 22 24 24 23 23 23 22 21 21 20 19 19 18 17 20 22 22 21 20 20 20 18 15 14 13
29 27 28 29 33 37 38 39 42 37 24 13 9 7 6 5 4 2 2 2 3 7 14 11 7 8 9 7 7 9 9 10 11 12 13 14 16 18 20 23 24 23 23 23 22 22 22 21 21 19 16 16 19 22 22 21 19 18 18 17 15 13 13
30 32 32 32 32 35 37 37 37 37 31 19 10 8 8 8 6 1 5 5 4 5 12 10 5 6 7 6 7 8 8 8 9 10 12 14 16 18 19 21 23 22 22 21 21 22 22 22 22 21 18 18 21 23 22 19 16 14 15 17 17 15 13
32 35 36 36 35 35 36 35 34 35 33 26 17 12 10 7 6 8 7 3 2 6 11 9 6 6 6 5 7 7 6 6 7 9 12 14 15 17 18 19 20 20 20 21 22 22 21 21 22 23 22 21 23 24 21 17 14 12 14 15 15 12 8
37 37 37 38 39 36 34 33 32 32 32 30 25 19 13 10 13 13 10 7 6 6 7 5 6 7 6 5 6 6 5 4 6 10 15 16 15 17 18 18 19 19 20 22 22 21 21 21 21 21 22 24 25 24 21 18 14 13 16 16 14 12 8
39 37 36 37 38 36 33 30 29 29 29 29 27 25 21 19 20 18 15 12 9 5 4 3 4 4 3 3 3 4 7 9 10 12 17 19 20 20 21 20 20 21 22 23 23 22 21 21 21 21 20 21 22 22 21 20 18 17 19 19 16 14 12

ECMWFFLT1_850_spd_084.txt.gz
Wind_Speed
41 42 42 43 43 44 44 44 43 43 43 44 44 44 44 43 43 43 44 44 43 43 42 43 44 45 45 44 45 45 45 45 45 45 47 47 48 49 48 48 47 47 52 51 43 41 43 40 38 39 38 37 37 33 29 29 31 31 31 31 30 29 29
42 42 43 44 44 44 44 44 44 44 44 44 45 45 45 44 44 45 45 45 45 44 43 44 45 46 46 44 44 47 46 46 46 46 48 49 49 50 50 49 48 48 49 51 46 41 42 41 38 39 39 37 37 36 32 32 34 34 34 34 34 33 32
42 43 44 44 45 45 45 45 45 44 44 45 45 45 45 45 45 45 46 46 46 45 44 45 46 47 47 45 44 46 46 45 45 46 49 50 50 51 51 50 49 48 48 50 48 43 42 42 39 39 39 37 36 37 35 35 36 36 36 37 37 37 36
43 44 44 45 45 45 45 45 45 45 45 45 45 45 46 46 45 45 46 46 46 46 45 45 47 48 48 47 46 46 45 44 45 45 47 50 51 51 52 52 50 49 49 48 48 45 44 42 40 39 40 37 36 36 36 37 37 37 37 37 37 38 38
44 45 45 46 46 45 45 45 45 45 45 45 45 45 46 46 46 46 46 46 46 46 46 45 47 48 47 47 48 48 47 45 45 46 46 48 51 52 52 52 51 50 49 48 48 47 46 43 41 39 38 36 35 36 36 36 37 37 37 36 36 37 37
45 45 46 46 45 45 45 45 44 45 45 45 45 45 46 46 46 46 45 46 45 45 44 44 44 45 45 45 45 46 46 45 45 46 46 46 49 51 51 51 51 50 49 49 48 49 47 45 42 39 37 36 35 36 37 37 37 38 37 37 37 37 37
45 45 45 45 45 45 45 44 45 45 45 45 45 45 45 45 44 44 44 44 43 43 43 43 43 43 42 41 41 41 41 41 42 44 46 47 48 49 49 50 50 49 49 48 48 48 48 46 44 40 38 37 36 36 38 38 38 39 39 38 37 37 36
45 45 45 44 45 44 44 44 45 45 45 45 45 44 44 44 44 44 45 45 45 44 43 43 41 40 40 40 41 40 39 39 38 39 42 46 47 48 49 50 50 48 48 48 47 47 46 45 44 41 38 37 36 37 39 39 37 39 40 38 37 37 36
45 45 45 45 44 44 44 44 45 45 44 44 44 43 43 44 44 45 46 46 45 44 43 42 41 42 42 41 41 40 39 39 38 38 41 44 45 47 48 50 50 48 47 46 46 45 44 43 43 41 38 36 37 40 41 39 37 38 39 38 37 37 36
45 44 45 45 45 45 44 45 45 44 42 41 40 40 41 42 43 43 43 44 44 44 45 45 46 47 47 45 44 44 43 42 43 43 44 44 45 46 47 48 48 48 47 46 44 43 43 42 43 43 40 39 40 40 39 38 37 38 39 38 37 37 35
45 44 44 44 45 45 45 45 44 42 40 38 36 36 38 41 43 45 46 46 48 49 49 49 49 48 48 48 47 47 46 45 45 45 45 45 46 47 48 47 47 47 46 45 44 43 41 41 43 44 41 40 41 40 38 37 37 37 38 38 38 38 36
45 44 44 44 44 45 45 44 42 39 37 34 32 33 36 39 42 44 46 47 48 49 49 49 49 48 46 46 45 44 44 44 43 43 43 44 45 47 50 51 50 49 48 46 44 43 43 43 44 44 42 41 41 39 37 36 36 37 39 39 38 38 36
45 44 44 43 44 44 43 42 40 36 33 31 32 33 35 36 39 42 44 46 47 48 48 48 48 47 46 44 43 43 43 42 42 41 41 41 43 45 49 53 54 53 53 51 49 47 47 47 45 44 43 42 40 38 37 37 37 38 39 40 39 38 34
45 44 44 43 42 42 42 39 36 33 32 32 33 33 34 37 39 42 44 45 46 46 46 46 46 46 45 44 42 42 42 41 40 40 39 39 41 43 46 51 55 55 54 52 51 50 50 49 47 44 43 42 40 38 38 38 39 40 40 40 38 34 30
45 44 44 42 40 39 38 36 34 33 32 33 33 34 35 38 41 43 44 45 44 44 44 45 45 45 44 43 42 40 40 40 40 40 40 38 39 40 41 45 51 55 54 50 48 48 49 48 47 45 43 43 42 41 41 40 39 38 37 36 34 31 29
43 43 42 41 38 36 37 36 34 33 33 33 33 35 37 41 43 45 47 46 44 43 42 43 44 44 43 42 41 40 39 39 40 42 42 40 39 38 39 40 44 48 51 50 47 46 46 45 45 46 44 43 44 43 41 38 37 36 35 34 33 32 31
42 41 40 38 35 34 37 37 34 34 34 34 34 37 40 44 47 49 50 48 44 41 41 42 43 43 43 42 41 40 39 37 38 40 42 42 40 39 39 39 39 40 44 45 45 46 45 44 43 44 43 42 43 42 40 38 39 39 37 36 34 32 30
41 40 37 35 33 34 39 40 37 36 36 36 37 39 43 47 50 51 51 49 45 42 40 41 42 42 41 40 39 37 36 34 34 38 42 41 40 40 40 40 39 38 40 40 40 42 43 43 43 43 40 38 36 36 37 38 40 40 38 36 35 32 28
40 39 36 32 33 35 38 41 40 37 38 40 40 41 45 48 51 52 50 48 46 42 39 39 41 41 39 38 36 35 35 33 32 36 39 38 37 38 39 39 38 37 37 37 36 36 35 36 38 39 37 33 30 31 34 35 36 38 38 37 35 31 28
38 37 35 32 34 36 38 41 41 39 40 42 42 43 47 50 51 51 49 47 44 41 38 38 39 38 36 34 34 34 36 35 33 35 37 37 37 37 36 36 37 36 35 34 33 33 32 30 31 32 34 33 30 31 34 33 30 31 34 35 34 33 32
36 36 35 34 35 37 38 39 41 42 42 44 45 47 50 52 52 50 48 46 42 37 36 36 36 35 32 31 31 32 33 32 31 33 35 37 38 36 33 34 35 35 34 33 32 32 32 31 29 29 31 34 33 32 34 34 31 28 28 30 33 34 34
36 36 37 37 37 39 40 40 41 43 45 47 50 52 52 52 49 43 40 39 34 32 32 31 29 28 28 28 29 30 30 30 29 29 31 34 37 33 31 33 33 32 32 32 32 31 31 31 31 30 30 32 32 31 31 32 32 29 25 25 28 32 32
36 38 40 42 41 41 42 41 42 45 47 50 54 54 51 47 39 32 30 29 27 27 27 25 24 26 27 26 26 26 27 27 26 24 24 29 34 32 29 31 30 29 30 32 32 32 31 32 33 33 33 33 32 30 26 25 28 29 26 23 24 26 28
37 40 43 46 46 45 44 43 43 46 48 51 55 55 50 41 30 24 24 24 23 23 22 22 23 25 26 25 24 23 22 22 21 20 20 23 27 27 27 28 28 26 27 29 29 30 29 30 32 35 35 35 34 32 26 23 25 26 26 24 21 23 26
39 41 44 46 47 47 46 44 45 47 48 52 56 54 50 41 27 20 21 22 20 20 21 22 23 23 24 24 21 18 17 16 15 15 15 17 21 24 25 26 26 24 24 25 25 25 26 28 30 33 35 35 35 31 25 23 25 25 24 23 21 21 25
40 42 45 45 45 46 45 43 45 47 48 53 57 53 50 44 28 19 21 23 19 17 18 20 21 21 21 19 15 12 11 11 10 10 10 13 18 23 24 25 25 24 22 23 22 22 23 25 28 30 31 33 35 31 24 25 28 26 24 24 23 22 25
40 42 44 44 44 44 43 42 44 46 48 54 56 51 50 45 26 14 18 21 16 12 11 13 14 16 15 13 10 7 6 6 5 5 6 11 18 22 23 23 23 22 19 19 18 17 17 20 23 26 27 30 34 32 27 27 30 29 26 26 25 24 25
40 40 40 41 41 42 41 40 42 44 47 53 51 46 47 42 22 11 18 20 12 6 7 8 9 12 11 8 6 4 3 3 3 3 3 7 13 18 20 21 22 20 17 17 16 15 15 16 19 22 23 26 32 34 31 29 30 29 27 26 26 26 26
35 35 35 36 35 35 37 39 41 42 44 47 43 36 39 40 26 15 19 19 10 5 6 8 10 10 7 4 3 3 2 3 4 4 4 5 8 11 14 17 20 20 19 19 18 18 18 17 17 18 20 24 31 36 34 29 26 25 25 26 26 27 28
27 28 31 32 30 29 30 33 37 39 39 40 37 30 29 32 25 17 16 14 8 6 7 9 10 8 5 5 5 5 5 5 6 5 6 6 8 10 11 12 15 16 17 18 19 19 19 18 17 17 19 23 30 36 36 31 25 23 25 27 26 27 28
24 23 25 27 28 28 26 28 33 36 36 36 34 28 24 25 24 18 14 10 6 5 8 10 11 9 7 6 6 7 8 10 11 10 9 9 10 12 13 13 14 14 15 15 14 16 18 19 19 18 18 21 27 33 36 34 29 26 26 26 25 26 27
27 25 23 22 24 26 26 28 33 36 35 34 32 27 22 21 23 22 15 8 6 8 11 12 12 12 10 8 7 8 10 11 12 13 12 11 12 14 16 17 17 16 15 14 13 13 15 18 19 19 18 19 23 30 35 37 34 31 29 25 23 23 25
31 29 27 24 24 24 25 28 32 34 35 35 32 26 22 20 21 23 19 12 13 19 21 18 16 15 13 10 9 10 11 11 10 10 11 11 11 12 15 18 20 19 17 16 15 14 15 17 18 17 17 19 21 25 30 36 38 36 32 28 24 22 23
33 31 30 30 28 25 26 28 30 32 34 34 31 27 23 19 18 20 20 19 21 25 26 25 23 21 18 15 12 10 10 11 10 10 11 12 11 11 11 14 19 21 19 19 18 16 15 15 15 16 18 19 21 22 25 32 39 40 35 30 27 25 24
38 34 32 32 30 28 28 29 28 29 31 32 31 28 25 22 21 22 23 23 24 26 26 26 26 25 24 22 19 15 10 8 10 12 13 13 13 13 11 11 16 20 20 20 19 17 16 14 13 15 17 18 20 23 24 28 34 38 36 32 29 27 26
39 37 34 33 31 29 29 29 28 28 28 29 30 29 27 28 30 30 28 26 25 25 25 25 25 25 25 25 25 24 19 10 4 7 11 13 15 15 13 11 13 16 18 19 18 15 15 14 12 15 17 17 19 22 24 25 28 31 31 30 29 27 26

ECMWFFLT1_850_spd_087.txt.gz
Wind_Speed
37 37 38 38 39 39 39 39 38 38 38 39 39 39 39 39 39 39 39 39 39 38 38 38 39 39 38 37 38 40 40 41 40 40 41 43 43 41 37 36 39 42 51 53 42 40 48 49 47 47 46 45 44 43 42 39 37 36 34 33 32 32 33
39 39 39 39 39 39 39 39 39 38 38 39 39 39 39 39 39 40 40 40 40 39 38 39 40 40 39 38 39 40 40 41 41 40 41 42 44 46 44 39 38 41 47 50 44 41 44 46 47 50 48 47 47 45 43 41 39 37 35 34 33 33 34
40 40 40 40 40 40 40 40 39 39 39 39 40 40 40 39 39 40 40 40 40 39 38 39 40 40 40 39 39 41 41 41 42 41 42 43 42 44 46 44 40 40 45 49 47 42 39 37 42 48 48 46 46 45 43 42 41 38 36 36 34 33 34
40 40 41 41 41 41 41 41 40 40 40 40 40 41 41 40 40 40 40 40 40 39 39 39 40 40 39 38 39 41 41 40 41 41 42 44 44 44 46 47 43 41 44 47 48 44 38 33 36 44 48 45 44 45 44 43 43 40 38 38 36 34 35
40 41 41 41 42 42 42 41 41 41 41 40 40 41 41 41 41 40 39 39 39 38 37 37 38 38 36 35 37 39 39 39 39 40 40 43 45 45 45 46 45 43 42 46 49 46 39 36 33 35 44 46 42 42 44 42 43 42 40 39 38 36 36
40 40 41 42 42 42 42 41 41 41 41 41 41 41 41 40 40 39 39 38 37 35 34 34 36 36 35 35 36 38 38 37 37 38 38 39 43 43 42 44 45 46 44 43 47 47 42 41 36 31 38 47 43 39 41 42 43 43 42 41 40 39 37
41 41 41 42 42 41 42 42 42 42 42 42 41 41 40 39 38 38 37 36 35 33 33 34 36 37 37 37 38 38 38 38 37 38 38 38 39 38 38 40 42 46 48 45 45 47 44 44 43 36 34 41 43 40 39 40 42 44 44 41 41 40 38
42 42 42 42 42 42 42 42 42 42 42 42 41 40 38 37 36 36 35 35 35 35 36 37 39 40 40 40 40 40 40 40 40 40 40 38 37 36 37 38 39 41 44 44 44 46 45 44 44 42 35 33 38 41 39 36 34 38 42 41 40 41 39
42 43 43 42 42 42 42 42 42 42 41 41 40 38 38 37 36 37 37 38 39 41 42 42 43 44 44 44 44 44 43 42 40 38 38 39 38 37 37 37 37 36 36 39 43 44 45 43 42 43 38 33 39 46 44 35 28 33 41 40 39 43 42
42 42 42 43 43 43 42 42 42 41 40 38 36 36 37 37 38 39 40 43 44 44 45 45 46 46 46 46 46 46 45 43 41 40 41 43 41 40 39 37 36 35 33 36 40 41 43 44 44 44 38 34 43 48 45 40 34 35 40 36 34 41 43
42 42 42 42 43 43 43 43 41 40 38 36 32 31 32 36 39 40 42 43 44 45 45 45 46 46 47 48 48 48 48 47 46 46 45 46 46 45 45 44 42 41 38 37 39 40 41 43 46 49 41 34 39 42 39 42 42 39 38 34 34 38 41
41 42 42 42 43 43 43 42 41 38 36 32 29 27 30 34 39 41 41 43 43 44 44 45 46 46 47 49 49 48 48 48 48 48 46 46 46 46 47 48 48 48 45 43 41 41 42 42 45 50 46 40 41 40 37 39 42 41 39 38 37 36 37
42 42 42 42 42 43 43 42 40 36 32 29 28 28 30 33 37 39 41 42 42 42 43 45 47 48 48 48 49 48 48 48 48 47 46 45 44 44 44 45 47 49 49 49 46 45 46 45 44 46 48 46 43 41 40 41 42 41 39 39 39 37 36
43 43 43 42 41 42 43 41 37 33 30 28 28 29 31 33 37 39 40 41 42 43 45 47 49 51 50 49 49 48 48 48 47 47 46 45 44 46 45 43 44 46 48 50 50 50 52 51 48 47 47 46 43 41 41 42 42 39 37 38 40 39 38
43 43 43 41 40 40 41 38 33 30 29 29 29 30 32 34 36 37 38 40 42 44 47 49 50 52 52 50 49 48 47 47 47 46 46 45 45 46 47 46 44 43 44 46 49 52 54 54 52 50 47 45 45 44 44 43 41 39 39 39 39 40 41
43 43 42 40 38 37 38 36 32 29 29 30 30 31 33 35 36 38 40 42 44 47 49 51 52 52 51 50 48 46 44 44 44 45 46 45 45 46 48 49 46 43 41 42 44 48 51 54 54 53 49 47 46 44 43 42 41 40 39 39 40 41 42
44 42 40 39 36 34 36 36 33 31 31 30 30 31 33 36 39 42 45 46 48 50 52 53 52 51 49 48 47 44 42 40 40 43 45 46 46 46 47 49 47 44 42 41 42 43 46 49 53 54 51 48 48 48 45 41 41 41 39 39 39 41 42
43 41 38 36 34 33 35 37 35 32 32 31 30 31 34 39 43 46 48 51 52 53 54 54 53 50 47 46 44 41 39 36 36 39 42 44 45 45 46 47 46 44 42 40 40 41 41 44 50 54 52 48 47 49 48 46 45 43 41 40 41 42 42
41 40 37 34 33 33 35 37 36 34 32 31 30 30 35 41 45 48 52 55 56 55 53 50 48 47 43 41 39 36 34 31 32 35 39 41 42 43 44 44 43 43 42 41 39 39 38 39 42 47 50 49 46 45 45 45 45 44 43 42 43 44 41
38 38 36 33 33 34 35 36 37 35 33 31 31 32 36 41 47 51 55 57 57 55 51 44 39 38 36 33 31 30 29 28 30 34 37 38 39 41 42 41 40 40 40 40 39 36 35 34 35 37 42 46 46 44 43 43 43 43 43 43 43 44 41
37 37 36 34 35 37 37 37 39 38 34 32 32 34 38 44 49 52 54 56 54 50 46 39 33 32 31 26 23 23 24 25 28 32 34 36 38 41 41 40 39 39 37 38 38 35 33 32 32 34 37 39 42 42 41 41 42 42 42 42 43 42 41
37 38 38 37 38 39 39 40 41 39 36 34 35 36 40 45 47 47 50 52 47 41 37 33 32 32 28 22 19 20 20 22 25 28 30 33 35 39 39 37 36 36 36 36 36 34 32 31 30 31 34 36 38 37 37 38 40 41 40 39 39 39 38
37 39 40 41 42 42 42 42 42 40 37 35 37 40 43 45 43 44 47 45 37 33 32 31 31 29 23 18 17 18 19 21 24 27 29 31 33 35 35 32 31 33 35 35 33 32 31 31 30 29 29 32 34 34 34 36 38 39 38 35 33 32 32
39 40 43 45 46 46 45 44 43 40 36 35 40 44 45 44 43 43 43 38 32 31 30 29 29 25 19 17 18 19 21 23 24 25 26 26 27 29 30 27 27 31 34 33 31 31 30 30 29 28 27 29 31 30 31 35 36 35 35 33 31 28 26
40 41 43 45 46 48 47 45 43 41 36 36 42 46 46 45 42 41 40 35 31 29 26 25 24 20 17 17 17 18 20 20 17 17 18 20 20 22 23 22 25 31 33 31 30 30 30 29 28 26 24 26 29 29 29 32 33 33 31 29 27 27 26
40 41 44 45 44 45 46 44 42 40 36 38 45 49 49 46 41 39 38 33 29 27 23 21 19 18 17 17 16 16 16 14 12 13 15 16 14 14 16 19 25 30 32 31 29 29 28 27 25 23 22 24 27 28 28 28 29 30 27 23 23 26 28
39 42 44 43 41 41 42 42 41 37 35 40 46 49 49 43 38 38 38 32 28 27 24 20 18 16 16 16 14 13 13 12 12 12 12 11 8 9 12 16 22 24 24 24 24 25 25 24 23 23 23 24 28 31 30 27 27 27 25 23 23 25 28
39 41 40 39 38 38 39 39 38 35 35 40 44 46 44 38 34 36 35 28 24 24 22 19 17 15 14 13 12 11 12 12 13 13 11 10 5 7 12 13 14 16 17 18 19 20 21 21 21 22 23 25 28 32 32 30 28 27 26 25 25 25 27
36 36 35 34 33 34 35 37 37 33 32 36 38 40 38 32 29 32 30 22 19 19 18 17 15 13 13 13 12 12 12 13 14 14 12 10 7 3 11 14 13 14 16 18 18 18 18 17 18 19 20 22 25 29 30 31 30 29 29 28 27 26 27
29 29 30 30 29 28 29 31 32 29 28 31 34 35 33 27 24 26 26 19 16 16 15 15 16 16 16 15 14 14 14 13 13 14 12 9 8 3 5 11 13 15 16 16 16 15 15 16 16 16 17 19 22 25 28 30 30 30 30 30 29 27 26
25 25 25 26 26 26 25 25 26 25 25 28 32 32 29 24 21 23 23 19 17 17 17 18 20 21 21 19 17 16 15 13 12 12 11 8 6 4 2 6 11 15 16 16 15 15 15 16 16 16 16 18 21 24 26 28 31 32 31 29 29 28 26
26 26 25 23 23 24 24 23 24 24 23 26 31 31 27 22 20 21 22 20 18 20 22 23 25 26 26 25 22 19 16 14 12 11 9 7 6 6 5 5 8 12 15 16 16 16 15 15 16 16 16 17 20 22 24 26 31 34 32 30 29 28 25
27 28 28 25 23 23 23 22 22 22 23 27 32 31 26 21 19 20 21 20 20 23 25 25 27 28 28 29 28 24 18 14 12 10 9 7 6 6 6 6 8 10 12 13 14 14 14 13 13 15 17 18 20 21 24 27 31 33 33 30 28 27 25
30 29 29 28 27 26 24 22 21 22 24 28 30 29 25 22 18 17 19 21 24 27 26 26 27 28 29 30 31 29 23 17 12 10 8 7 7 7 6 6 7 11 13 14 13 13 12 11 11 13 15 18 19 20 23 28 31 32 31 29 27 26 26
35 32 30 30 29 28 27 24 23 23 24 26 27 26 25 23 21 21 22 24 26 27 27 27 28 28 29 30 31 31 29 23 16 11 7 6 8 8 8 7 7 10 14 16 15 14 13 12 12 13 14 16 19 20 22 28 32 32 32 31 27 24 25
38 35 32 29 29 28 27 26 25 24 23 23 24 24 25 26 27 28 28 28 28 28 28 28 28 28 28 29 29 30 30 28 22 15 9 3 4 8 9 9 9 9 12 16 17 16 15 14 12 12 14 17 20 20 21 27 33 33 32 32 29 23 22

ECMWFFLT1_850_spd_090.txt.gz
Wind_Speed
32 33 31 30 32 31 30 34 35 35 35 34 35 38 38 38 38 38 38 38 37 37 37 37 38 37 35 32 32 33 33 35 35 33 34 36 37 38 38 39 37 38 45 45 36 35 36 31 29 31 31 31 32 31 29 30 30 30 33 39 43 41 39
31 32 32 32 34 33 31 33 34 33 32 32 35 39 39 38 39 39 39 39 39 38 38 38 38 37 35 32 35 37 36 36 36 35 36 36 36 38 38 37 37 36 39 41 37 36 39 35 31 32 31 30 32 32 30 31 31 29 30 34 40 42 39
32 33 34 36 38 39 37 37 37 36 36 38 40 41 41 40 40 40 40 40 39 39 38 38 39 38 37 36 37 38 37 36 36 35 36 36 35 37 38 37 37 38 39 41 39 37 39 38 34 33 33 30 31 32 32 32 31 30 31 32 36 41 40
35 35 37 38 39 40 40 39 40 40 40 41 41 42 42 42 42 41 41 41 40 39 38 38 39 38 37 37 37 37 36 35 34 33 33 34 34 35 37 37 37 37 38 39 40 40 42 41 35 33 35 33 31 32 33 33 32 30 30 31 33 37 40
38 38 39 40 40 40 40 40 40 40 41 41 41 42 43 43 43 42 42 41 40 40 39 38 38 37 35 34 34 35 35 34 33 33 32 33 33 33 34 35 36 37 37 36 39 41 43 45 42 37 36 35 33 33 32 32 33 32 30 31 31 32 39
39 40 40 41 41 41 41 41 41 41 42 42 42 42 42 42 42 42 41 40 40 38 37 36 36 34 32 31 32 33 34 34 33 33 33 34 33 33 33 35 36 37 39 39 41 42 40 42 46 43 39 36 33 34 34 32 32 32 30 30 30 30 37
39 39 40 41 41 41 41 41 42 42 43 43 42 42 42 41 40 39 39 38 37 36 35 35 34 34 33 32 33 35 35 35 34 35 36 35 35 35 34 36 37 37 39 41 42 42 38 37 41 42 42 39 33 34 36 34 34 34 30 28 27 27 30
39 39 40 40 40 40 41 41 42 43 43 43 42 41 40 39 37 37 36 36 35 35 35 36 36 37 37 36 36 37 37 36 36 38 39 38 38 38 38 38 38 36 36 36 36 38 37 33 33 36 39 39 35 35 36 34 35 36 33 30 27 24 24
39 39 40 40 40 40 40 41 42 43 42 42 41 40 39 39 39 39 39 38 38 38 39 41 41 41 41 40 39 39 39 39 39 40 42 42 41 40 40 40 38 34 31 31 32 34 33 31 30 31 33 37 37 37 36 35 35 34 32 32 31 27 24
39 39 40 40 40 40 41 42 42 41 41 39 37 36 37 38 39 40 40 41 41 41 42 43 43 44 44 44 43 42 42 42 42 42 43 44 43 42 42 42 41 37 34 33 34 34 32 31 32 31 31 35 38 37 35 35 36 34 30 29 33 32 26
39 39 39 40 41 41 41 42 42 41 39 37 33 32 32 34 36 37 38 40 41 41 42 42 43 44 45 45 45 44 44 44 44 44 44 45 44 44 43 44 45 42 38 35 35 35 33 32 34 32 29 32 35 36 36 36 34 35 32 28 30 33 28
39 39 40 40 40 41 41 42 41 40 38 35 31 28 28 30 34 37 38 39 40 41 42 43 43 43 43 44 44 44 45 45 45 46 46 47 47 46 46 47 49 47 43 38 37 37 36 35 36 34 31 31 32 33 34 35 35 36 34 29 28 31 28
40 40 40 40 41 41 41 41 41 39 36 32 29 27 27 28 32 37 38 38 39 40 41 41 41 42 43 44 44 45 47 48 48 49 50 50 50 49 48 49 49 50 49 46 43 41 41 40 40 39 36 34 32 31 33 35 36 37 35 29 28 30 28
40 40 40 40 41 41 42 41 39 36 33 30 28 28 28 29 33 36 37 38 38 38 38 38 39 42 44 45 46 48 50 51 50 50 50 50 50 50 50 51 50 50 50 49 49 49 49 48 45 43 42 38 33 35 39 38 35 35 35 34 32 32 31
40 40 40 40 40 40 41 40 36 34 32 30 28 28 28 30 32 33 34 35 35 35 36 38 40 42 44 46 47 48 49 50 51 50 49 49 49 49 49 51 51 50 49 49 49 51 53 53 51 49 47 43 38 39 43 44 40 35 35 37 37 36 36
40 40 39 39 39 39 39 38 35 33 32 30 28 27 28 30 31 31 32 33 34 36 38 40 42 45 47 48 48 48 47 47 48 51 52 51 50 49 48 49 50 49 47 46 46 47 48 49 51 53 53 49 45 42 40 42 44 42 39 39 39 39 39
39 39 39 39 38 37 37 38 36 34 32 30 27 26 28 29 29 30 32 34 35 38 40 42 45 47 49 50 49 47 44 42 42 45 50 53 51 50 49 50 49 47 45 43 43 44 45 44 45 49 51 50 49 48 43 39 41 45 44 40 40 41 37
40 39 38 38 37 36 36 37 36 34 32 28 25 24 26 28 29 31 34 35 38 41 44 46 47 47 47 48 47 44 40 37 36 39 45 49 49 50 50 49 47 46 45 43 41 42 44 44 44 45 47 47 48 49 48 45 45 47 45 41 42 42 35
39 39 37 37 36 35 35 37 36 34 30 26 22 22 24 28 32 34 35 36 41 45 45 45 45 45 45 44 42 39 36 34 35 38 42 46 48 50 49 46 44 45 45 44 42 41 41 42 43 45 46 47 48 48 48 49 49 49 47 42 41 41 36
38 38 37 36 36 36 36 37 37 34 28 25 22 21 24 30 33 34 35 38 42 43 41 40 41 42 41 38 35 34 35 35 34 33 35 38 43 45 44 41 41 42 43 43 42 41 39 38 38 40 42 44 46 47 47 48 49 51 50 44 40 41 40
36 36 36 35 36 37 37 38 38 35 31 28 25 23 26 31 33 33 36 39 38 36 36 38 39 37 35 33 32 31 31 30 28 26 25 27 32 35 36 38 40 41 41 41 41 41 40 38 35 35 36 38 41 43 43 43 45 49 51 48 44 42 40
35 34 35 35 36 38 40 41 41 39 37 33 28 26 28 31 31 32 35 36 34 34 36 38 38 36 33 30 29 28 26 23 21 22 22 23 26 30 33 35 37 38 39 39 39 39 39 38 36 33 32 34 36 39 40 39 41 46 50 51 48 45 42
35 34 35 37 38 40 42 42 42 41 39 34 30 29 30 30 29 31 35 34 32 33 38 41 39 35 33 30 28 27 24 22 21 21 22 24 27 29 31 33 35 37 38 37 37 37 37 37 35 31 30 31 33 35 36 36 37 43 47 47 46 45 44
35 34 37 39 40 42 41 40 41 42 38 33 31 31 33 32 31 34 36 33 30 33 39 40 37 33 31 29 27 24 22 21 20 20 21 23 24 25 27 31 34 36 38 38 38 37 36 35 32 28 27 29 30 30 30 31 33 37 42 43 43 43 41
35 36 38 39 39 41 42 41 41 42 38 33 31 34 36 35 34 37 35 30 31 37 39 35 32 30 28 26 24 22 20 18 18 18 19 20 22 22 23 27 30 31 33 36 37 36 36 34 30 27 27 28 26 25 27 29 30 32 34 36 37 38 38
35 36 37 37 35 36 40 42 42 40 37 33 33 38 39 36 36 38 35 30 35 40 37 31 28 26 24 23 20 19 17 16 17 18 19 19 20 20 20 22 25 26 28 31 33 35 34 30 25 25 26 26 23 22 25 29 29 28 29 30 32 34 37
34 35 36 36 32 32 37 41 40 38 35 34 35 40 40 37 40 41 35 33 39 40 34 28 25 22 20 19 17 16 15 15 15 16 17 17 17 19 19 18 20 23 28 30 30 31 30 24 21 20 20 21 22 21 21 25 28 29 28 29 30 33 35
33 34 35 33 31 32 37 39 37 35 34 33 35 38 37 37 41 39 33 34 38 36 30 25 22 21 19 17 15 14 14 14 14 15 15 15 15 18 19 16 13 16 22 23 21 22 22 20 20 21 20 19 20 19 18 21 25 28 29 28 30 32 32
31 32 32 30 30 33 35 35 35 34 31 29 30 32 33 35 37 33 30 32 34 30 26 23 21 22 22 21 18 16 14 14 14 14 14 14 12 13 15 13 8 6 10 14 16 18 19 19 20 22 22 20 18 19 18 19 21 23 25 26 29 31 29
26 26 26 27 29 30 29 30 32 32 28 26 26 28 29 31 31 28 28 30 28 23 22 21 21 24 27 27 26 24 19 16 16 14 14 14 11 10 13 13 7 2 5 11 15 16 16 16 16 18 19 18 18 19 20 19 19 20 21 24 27 28 26
21 21 22 24 26 27 26 27 28 28 26 24 24 26 28 29 27 25 25 25 24 20 19 21 22 25 27 28 30 29 24 20 17 15 13 12 10 7 8 11 9 6 6 10 13 13 12 12 13 14 14 15 17 19 21 20 20 19 20 23 27 26 23
21 20 20 22 23 23 24 25 25 25 24 23 22 26 28 27 25 23 21 21 20 19 19 21 23 24 26 28 30 31 28 24 20 16 13 12 10 6 4 5 8 8 7 9 12 13 11 11 13 14 14 15 16 17 18 19 20 20 20 21 24 25 24
23 22 22 22 22 22 23 23 22 22 22 20 21 25 28 26 23 21 19 18 19 20 22 23 24 24 25 27 29 30 30 28 24 19 14 11 10 7 5 4 4 5 7 7 10 12 13 13 14 15 15 16 16 16 16 17 18 20 20 20 22 25 24
26 24 24 24 24 23 22 22 22 22 21 20 21 25 27 25 21 18 17 19 21 22 24 25 26 26 26 27 28 30 31 30 28 23 17 12 8 6 6 5 3 5 8 8 8 11 13 14 14 14 14 15 15 15 15 15 17 20 21 21 22 23 23
31 28 26 26 25 25 24 23 22 22 21 20 21 23 25 24 21 18 18 20 22 23 24 25 27 28 27 27 28 29 30 30 29 26 21 16 10 5 4 6 4 5 8 9 10 11 12 13 13 13 13 13 14 15 15 15 16 19 21 23 23 22 21
34 31 28 27 26 26 25 23 22 21 21 20 19 21 23 23 22 21 22 22 23 24 24 24 26 27 27 27 28 28 28 29 28 27 24 19 14 9 4 4 5 6 7 9 11 12 13 14 14 13 13 13 13 15 15 15 16 18 20 25 27 24 21

ECMWFFLT1_850_spd_093.txt.gz
Wind_Speed
26 24 25 25 25 26 27 27 27 26 26 26 27 27 27 28 28 28 28 27 27 25 23 24 24 24 25 25 25 27 27 28 28 27 24 24 24 24 25 27 27 31 39 40 41 48 49 42 37 38 38 36 37 37 35 34 34 33 33 33 33 32 31
26 25 25 26 26 26 26 26 25 25 24 24 25 26 27 28 28 31 32 30 29 29 26 26 25 25 27 27 26 29 30 30 31 31 30 31 31 30 29 28 28 30 33 33 35 43 48 43 38 38 36 32 33 34 34 34 33 32 32 33 32 31 31
27 26 26 26 26 25 25 25 25 24 24 24 25 27 29 31 32 35 37 36 37 36 33 33 33 31 32 30 29 31 32 31 34 34 35 36 34 33 33 32 30 30 31 30 31 39 47 46 42 41 40 35 34 34 34 35 35 33 33 33 33 32 31
26 27 26 25 25 25 24 26 28 30 31 31 32 34 34 36 37 39 40 40 41 41 38 38 39 37 36 35 34 35 34 33 34 34 33 34 34 33 33 32 29 29 29 29 29 33 41 45 40 39 39 36 35 36 35 35 35 35 35 35 34 34 34
25 25 25 26 27 27 27 28 31 34 37 37 39 39 39 40 41 41 41 41 40 39 39 39 39 37 36 35 34 35 34 32 32 32 32 33 33 33 32 30 29 28 26 27 28 29 35 43 43 41 41 38 36 39 40 38 36 35 35 36 36 36 37
26 27 28 30 31 32 33 33 35 37 39 41 41 41 41 41 41 41 40 40 39 38 37 37 37 36 35 34 34 34 33 32 32 32 33 34 34 34 34 34 33 32 30 29 29 29 32 40 44 43 44 41 36 36 37 38 40 40 38 38 37 37 38
33 33 34 35 36 36 37 37 38 39 40 41 41 41 41 40 40 39 38 38 38 37 37 37 37 37 36 35 35 35 33 33 33 34 35 35 35 35 36 36 37 36 37 36 34 32 32 37 41 43 45 43 35 31 32 34 37 40 39 37 36 37 36
36 37 37 37 37 37 37 38 39 39 40 40 40 39 39 38 38 38 38 38 38 37 37 38 37 37 37 36 36 35 35 34 34 35 36 36 36 37 37 39 39 39 40 39 36 33 32 32 33 37 42 41 32 28 32 32 33 37 38 35 35 35 35
37 37 38 37 37 37 37 38 39 39 39 39 38 38 38 38 38 39 39 40 40 39 39 40 39 38 37 37 36 36 36 36 35 35 36 36 36 37 39 40 40 40 40 37 33 30 29 28 28 30 34 36 32 28 29 27 28 34 37 36 35 35 34
37 37 37 38 38 38 38 38 39 39 38 37 36 36 36 37 37 38 39 40 41 42 42 41 39 39 38 38 39 39 39 39 38 37 38 37 37 38 40 40 41 41 40 38 35 33 30 27 28 28 27 31 33 30 28 27 27 31 34 33 34 36 35
38 37 37 37 38 38 38 39 39 39 38 36 34 33 32 33 35 37 39 40 39 39 39 37 35 35 36 38 41 43 42 42 41 40 40 40 39 40 41 42 43 43 43 42 42 41 37 32 32 30 27 30 33 29 28 28 28 30 32 31 33 35 34
37 38 37 37 38 38 38 39 39 38 36 34 32 30 29 31 34 36 38 39 37 36 37 38 38 38 39 40 42 44 43 43 42 41 41 41 40 41 42 42 45 47 48 48 47 48 46 42 39 35 31 32 33 29 27 28 28 28 30 31 32 34 32
38 38 38 38 38 39 39 39 39 37 35 33 31 31 29 30 32 35 37 39 38 38 40 42 42 43 42 41 42 43 42 42 42 42 42 43 43 44 44 44 45 47 50 52 54 55 54 50 46 42 39 37 33 30 29 31 31 29 29 30 31 33 33
38 38 38 38 38 39 40 40 38 37 35 32 32 31 29 29 32 35 36 37 39 39 40 40 40 41 41 40 40 40 40 40 41 42 44 45 46 47 48 48 48 47 48 51 54 57 58 55 50 47 46 42 36 34 35 36 35 32 32 34 34 33 32
38 39 39 38 38 39 40 39 38 36 34 32 31 30 28 29 31 33 33 34 34 34 34 35 35 36 37 37 38 37 37 38 40 42 44 46 48 50 50 50 50 50 50 51 52 55 57 57 54 52 50 47 42 41 41 41 39 36 34 37 41 42 39
39 39 39 38 38 39 40 39 37 35 33 31 29 27 26 27 29 30 30 30 29 29 29 30 31 33 35 36 38 38 38 39 41 43 45 47 50 51 52 52 50 48 49 50 50 51 51 51 52 52 52 51 49 48 47 44 42 41 38 37 41 46 49
39 39 39 39 38 38 39 39 37 35 32 29 25 23 23 26 28 29 29 30 30 30 30 31 32 33 35 37 39 41 41 41 42 45 48 50 53 55 56 56 53 49 47 46 45 46 46 45 45 45 44 45 46 48 49 45 42 43 42 39 38 40 44
40 40 39 39 38 37 37 38 37 34 30 25 21 20 22 26 29 30 30 31 31 30 31 33 33 32 34 37 38 40 42 42 44 47 50 51 52 55 58 58 55 52 50 47 45 44 44 44 45 44 43 43 42 43 44 44 44 44 41 39 38 37 36
40 40 39 38 37 36 35 35 34 32 27 22 19 19 21 27 30 31 31 32 32 33 34 33 33 32 33 34 36 38 40 40 42 44 45 46 47 49 52 52 49 48 48 48 47 46 44 43 44 45 45 46 45 43 42 44 47 46 43 40 39 38 34
38 39 39 37 36 35 33 33 33 30 26 23 20 21 23 26 28 30 32 34 35 36 34 32 32 32 33 35 38 39 38 36 36 37 41 45 45 44 45 44 43 44 44 43 44 43 42 43 42 42 43 43 44 45 45 45 47 47 46 45 43 41 37
37 38 38 36 35 34 33 33 33 32 30 26 23 22 23 24 26 28 32 36 35 32 31 31 31 32 35 39 41 38 35 33 34 37 43 45 42 38 38 38 39 40 38 37 39 39 40 42 42 41 40 39 38 40 43 45 47 47 47 48 49 47 43
37 37 37 35 34 33 33 33 33 32 32 31 28 24 22 22 24 26 30 34 32 30 31 32 31 33 39 42 41 38 36 36 38 40 39 37 34 33 33 31 32 33 32 32 34 36 37 39 40 40 40 38 35 35 37 42 46 48 48 49 50 50 48
36 36 36 35 34 33 33 33 32 30 31 33 33 27 22 21 23 26 28 30 30 32 32 31 32 37 43 43 40 39 38 37 37 36 33 31 29 26 26 25 25 27 29 31 33 34 35 37 38 38 38 38 36 34 34 37 41 45 47 48 49 48 49
35 34 34 33 33 33 33 34 33 30 31 36 36 30 24 23 24 27 28 28 30 33 31 30 34 41 45 42 38 38 37 36 36 33 32 31 28 23 22 23 22 21 25 31 36 37 37 38 40 39 38 37 36 33 33 34 37 39 41 43 44 44 45
34 33 31 30 31 33 35 35 32 31 34 38 37 31 27 26 28 29 29 29 31 31 28 31 38 43 42 39 36 35 34 35 34 32 31 31 27 24 23 23 21 21 22 26 34 40 41 42 42 41 39 37 33 31 30 31 33 35 36 38 39 39 40
33 30 29 30 32 34 35 34 31 33 39 39 36 33 32 31 32 32 30 29 30 27 29 37 42 42 38 35 31 29 29 29 30 30 30 29 27 25 23 22 22 23 23 24 27 34 40 42 43 41 38 35 33 32 29 28 30 32 34 36 37 37 39
31 29 29 32 35 34 32 31 32 37 40 38 35 35 35 35 34 33 31 30 28 29 37 43 42 37 34 31 28 25 25 26 25 26 27 27 26 24 21 20 20 20 22 25 26 27 32 38 38 36 33 32 32 31 27 26 27 29 31 33 34 36 39
31 31 32 34 36 33 30 31 36 39 38 35 35 36 35 35 34 33 33 32 30 34 41 41 36 33 30 27 25 24 25 26 26 24 23 24 23 21 19 18 17 16 19 22 23 22 24 29 30 28 28 28 28 27 25 24 24 25 26 27 29 33 36
31 32 34 34 32 29 28 32 36 37 35 33 32 32 32 32 31 32 33 34 33 37 39 35 31 29 26 23 23 25 26 28 28 26 22 20 18 16 15 16 14 13 17 18 16 14 15 17 18 19 20 22 22 22 22 21 22 24 23 22 25 30 31
27 29 30 30 29 28 29 32 35 35 33 30 28 28 28 28 29 31 32 33 33 34 32 28 26 25 22 22 23 25 27 29 30 28 25 20 16 12 12 13 12 11 14 14 10 8 8 11 13 14 16 16 17 17 17 18 20 22 21 20 22 25 25
24 24 25 25 26 28 30 31 32 33 31 28 27 27 26 27 28 29 29 30 30 29 26 23 22 22 21 22 23 24 26 29 29 29 29 24 18 13 10 10 11 10 9 9 9 6 6 8 10 12 12 11 12 13 15 16 18 20 20 21 22 23 24
25 23 22 22 24 26 28 29 30 30 28 26 26 25 24 26 27 27 26 26 25 24 21 20 19 20 22 23 23 24 26 27 29 29 29 26 22 17 13 10 10 10 7 7 8 8 7 7 8 9 9 9 9 10 12 15 17 18 19 20 23 25 24
27 25 24 23 23 23 24 25 26 26 25 24 23 22 22 25 27 25 23 22 21 20 19 18 18 19 21 22 24 25 25 26 28 29 28 27 24 20 16 12 9 8 6 5 7 8 8 8 8 8 9 10 10 11 12 13 15 18 19 19 21 24 24
30 28 27 26 25 24 23 23 23 23 23 23 21 21 22 25 25 22 20 18 18 19 19 19 18 19 21 22 23 25 25 26 27 28 28 27 24 21 17 12 9 7 7 6 5 5 7 9 9 10 11 12 12 12 13 14 15 17 20 20 19 21 23
34 31 29 28 27 26 25 24 23 22 21 20 20 21 23 24 23 20 18 17 18 19 20 20 20 20 20 21 22 24 25 26 26 27 28 27 25 22 18 14 10 8 8 8 6 4 6 8 11 12 12 12 12 12 13 14 15 16 20 23 22 19 21
37 35 32 30 28 28 27 26 24 22 20 19 19 20 22 22 21 20 19 19 19 19 20 20 20 20 21 21 22 23 24 25 25 25 26 26 25 23 19 17 14 11 8 8 8 7 7 8 9 11 13 12 12 12 14 15 15 15 17 22 24 22 20

ECMWFFLT1_850_spd_096.txt.gz
Wind_Speed
25 26 27 27 27 27 28 29 29 29 29 30 30 30 30 31 31 32 34 34 35 35 34 35 36 37 36 35 35 36 36 36 35 35 34 33 33 33 32 31 32 36 43 42 37 39 43 42 41 41 40 39 38 38 38 39 40 39 37 35 36 35 33
26 26 27 28 28 29 30 31 31 30 30 30 31 31 32 32 33 34 35 35 36 36 36 36 36 37 37 35 35 36 36 37 36 35 35 34 34 35 35 34 34 36 40 43 42 40 42 42 40 42 42 38 38 38 36 36 37 37 36 36 36 39 38
27 27 27 28 30 31 32 32 32 32 31 31 32 33 34 34 34 35 36 36 37 37 36 37 37 37 37 36 36 37 36 36 36 35 36 37 36 36 37 36 36 38 40 43 44 42 42 41 39 41 42 38 37 37 34 34 35 36 36 35 33 33 33
27 28 28 30 32 33 33 33 33 33 33 33 33 34 35 36 36 36 37 37 37 37 37 37 37 37 37 36 35 36 36 35 35 35 35 36 36 36 37 36 34 35 37 39 41 41 40 37 36 38 40 37 36 36 34 34 35 36 37 38 37 36 35
29 30 31 32 33 34 34 34 34 34 34 35 35 36 37 37 38 37 37 37 37 37 36 36 37 37 35 35 35 35 36 35 34 34 33 34 34 34 35 34 32 32 32 34 37 39 38 35 34 37 38 36 36 38 37 36 37 37 37 38 39 40 40
30 31 32 34 34 35 35 35 35 35 36 36 36 36 37 36 36 36 36 37 37 36 36 36 36 36 35 34 35 35 36 35 34 35 34 34 34 34 34 35 34 33 33 34 37 39 39 38 36 37 39 38 36 37 37 37 37 36 36 36 37 38 39
32 32 33 34 35 35 35 36 36 36 36 36 36 36 35 34 34 35 35 36 37 37 37 37 37 37 36 35 36 36 36 36 36 36 36 36 35 35 36 37 38 38 37 38 39 40 41 41 39 38 41 40 36 35 37 36 36 36 35 34 34 36 37
33 33 33 34 35 35 35 36 36 36 36 36 35 34 33 33 33 35 37 37 37 37 38 38 38 38 38 37 37 37 36 36 36 37 37 36 36 37 38 39 40 39 39 39 40 41 41 40 39 39 40 39 35 34 37 35 33 35 35 32 30 31 31
33 34 34 35 35 35 36 36 36 36 36 35 34 33 33 34 35 37 38 39 39 39 39 40 40 40 40 39 38 37 36 36 35 36 37 37 37 39 40 41 41 40 40 39 39 41 41 38 37 37 37 37 35 35 37 34 31 33 33 29 28 29 28
33 34 34 35 36 36 36 36 36 36 35 33 32 32 33 35 36 36 38 39 40 41 41 41 40 40 40 39 39 39 39 38 38 38 40 40 39 40 41 41 41 40 40 39 39 40 39 36 37 38 37 37 37 35 35 33 31 33 33 29 30 32 30
34 34 34 35 36 37 37 37 36 36 34 31 30 30 31 33 34 35 36 38 40 41 42 41 40 39 39 39 40 41 41 42 42 42 42 42 42 42 42 43 44 43 42 41 41 42 40 39 41 41 39 39 39 36 35 34 33 32 31 29 29 31 30
35 35 35 36 37 37 37 37 37 36 34 31 29 28 29 31 33 35 36 38 40 41 41 40 40 40 41 41 41 42 42 43 43 42 42 43 43 43 43 43 45 47 48 47 45 45 44 43 44 44 42 42 41 39 38 37 36 34 34 33 32 33 32
36 36 36 37 37 38 38 38 38 36 33 31 29 28 29 30 31 34 36 37 38 39 39 39 39 40 41 41 40 40 40 40 40 40 40 42 43 44 44 44 44 46 49 51 50 49 49 49 48 47 47 46 44 41 40 40 39 38 36 36 35 35 34
37 37 37 37 38 38 39 38 37 35 32 30 29 29 28 29 31 34 35 35 35 36 36 35 35 37 38 38 37 36 35 35 36 36 37 39 40 41 42 43 43 44 45 47 50 52 53 54 53 53 53 52 48 45 44 44 43 41 39 39 40 40 38
38 38 38 38 38 39 39 38 36 35 32 29 29 29 28 28 30 32 33 32 32 31 31 30 31 33 35 36 35 34 33 33 35 36 37 39 39 40 41 42 44 44 45 45 47 49 52 54 55 55 56 55 53 52 53 51 48 45 42 42 42 42 41
38 38 39 39 38 38 39 38 36 34 31 29 28 28 28 28 28 29 30 30 29 28 28 28 29 32 34 35 36 36 34 33 34 36 39 41 42 44 45 46 47 47 48 48 48 49 50 51 51 52 52 51 51 52 53 52 51 48 45 43 44 43 42
38 38 39 39 38 37 38 38 36 33 31 29 28 27 26 26 26 28 29 30 29 28 29 29 30 31 33 35 36 36 35 33 33 36 40 42 43 44 45 47 48 48 48 47 48 49 50 50 49 48 47 45 45 45 45 48 50 49 46 46 45 45 44
38 38 38 38 37 36 36 37 36 33 31 29 26 24 23 23 26 30 31 31 31 30 31 31 31 32 32 34 35 35 35 34 35 37 38 39 41 43 44 45 45 45 46 47 47 48 49 49 49 49 49 48 47 45 45 48 52 49 46 46 46 46 45
38 38 38 37 37 35 34 35 35 32 30 27 23 21 20 23 29 32 32 33 33 32 32 33 34 34 33 33 34 34 36 36 34 35 37 40 43 44 45 44 43 42 44 45 46 49 50 49 46 44 46 49 49 48 47 49 51 50 47 46 46 47 44
37 38 38 37 36 34 32 31 32 31 29 25 21 20 21 24 29 31 32 33 33 32 33 35 35 35 33 32 34 35 35 34 33 35 40 43 43 42 43 43 41 41 42 43 45 49 51 50 44 38 39 42 44 45 46 47 48 48 46 46 47 48 45
37 37 37 36 35 34 31 28 28 29 29 26 22 21 21 24 26 29 31 33 32 33 35 36 36 35 33 33 33 32 32 33 36 39 42 42 40 40 41 41 39 40 40 40 41 43 43 43 40 36 36 37 40 41 41 43 45 46 46 46 48 47 45
37 37 38 37 35 35 32 27 26 27 29 29 27 24 22 23 25 26 29 33 34 34 36 36 35 34 32 30 30 32 34 38 40 40 41 40 38 38 39 39 39 40 38 36 35 34 34 35 35 33 33 34 36 36 36 38 42 46 47 49 50 48 46
36 36 37 37 36 34 32 28 26 27 29 31 31 27 24 24 25 24 28 32 34 34 35 35 33 32 31 31 32 35 38 39 38 37 37 37 37 37 38 37 37 35 33 31 30 29 29 32 33 33 33 33 33 33 33 36 39 42 45 48 49 49 49
37 36 37 37 36 34 32 29 28 29 30 33 32 30 28 27 26 25 27 30 32 33 34 33 33 33 33 33 35 37 37 36 35 35 35 35 36 36 35 32 30 29 28 28 27 26 27 29 31 33 34 34 33 33 33 34 36 38 40 43 45 47 48
36 36 36 37 36 35 33 32 31 32 33 33 33 32 32 30 28 27 28 30 32 33 33 33 33 34 36 38 39 39 38 37 36 35 34 33 34 34 32 28 26 25 25 26 26 25 25 28 30 33 34 35 34 35 36 36 36 36 36 38 40 42 43
36 36 36 35 35 35 35 34 34 36 36 35 34 34 33 32 32 31 31 33 34 34 32 31 32 35 40 43 41 38 37 37 36 33 31 31 32 32 29 25 22 21 22 24 25 25 26 27 29 32 34 35 35 37 38 38 36 36 35 35 35 37 39
35 35 35 35 36 36 36 36 37 38 37 35 35 35 34 34 35 35 35 36 35 33 31 32 35 39 42 41 37 34 33 32 31 29 29 29 29 28 25 21 17 17 19 21 23 24 26 28 28 29 32 35 36 37 39 37 36 35 34 34 34 36 38
35 34 34 35 36 36 37 39 39 37 36 35 34 34 34 35 36 36 37 36 34 32 32 36 40 42 40 36 33 32 30 28 26 26 26 27 27 25 22 17 14 14 15 18 20 22 25 27 27 27 29 33 34 36 37 36 34 34 34 34 34 35 37
35 35 36 36 36 37 39 40 38 35 34 34 32 32 32 34 34 35 35 34 32 32 35 39 40 39 35 32 30 29 27 26 25 25 25 25 25 25 22 18 14 13 14 16 17 20 22 23 22 21 24 29 33 35 35 33 32 32 33 34 34 34 35
31 32 34 35 36 36 35 36 36 35 34 32 30 29 29 30 31 31 32 31 31 33 37 38 36 33 30 28 27 26 26 25 26 27 27 26 26 26 25 21 17 14 14 14 15 17 18 17 17 17 17 21 27 30 29 28 29 31 31 32 33 32 32
27 28 28 30 32 33 32 32 33 34 33 30 28 27 28 29 29 29 29 30 32 34 35 33 31 28 25 24 24 24 24 25 25 27 28 28 27 27 26 24 19 16 13 12 13 15 16 15 14 13 12 14 17 20 22 23 25 27 29 30 29 29 28
26 26 25 26 27 28 29 29 29 30 29 27 26 26 26 27 28 28 28 29 31 32 30 28 26 24 22 21 22 23 23 24 25 26 27 28 29 28 27 25 21 17 14 13 13 14 16 14 12 10 10 11 12 12 15 18 19 21 23 24 23 24 25
27 26 27 27 25 24 24 25 26 26 25 24 23 23 23 24 26 26 25 26 28 28 26 23 22 21 20 20 21 22 23 23 24 25 26 27 28 28 26 24 21 17 15 14 13 14 15 14 11 9 8 9 10 10 11 13 14 16 17 18 19 20 21
29 29 29 30 28 26 25 25 25 24 24 22 19 19 22 26 28 26 24 23 24 24 23 21 20 20 19 19 20 21 22 23 24 24 25 26 26 26 25 23 20 18 16 15 13 13 13 13 11 8 6 7 10 12 12 12 13 14 15 17 18 19 19
34 32 31 32 31 30 27 26 26 26 24 21 19 20 24 28 28 24 22 21 21 21 21 21 20 20 20 19 19 20 21 23 23 24 25 25 26 25 23 22 21 19 17 16 14 13 13 13 11 9 7 7 9 12 14 15 14 14 15 16 17 18 18
37 35 33 32 32 30 29 27 27 27 24 20 18 21 24 25 24 22 21 20 19 20 21 20 20 20 20 19 19 19 20 21 22 23 24 24 25 24 23 22 21 21 19 17 14 13 12 12 12 11 9 8 8 10 13 15 15 14 15 15 16 17 18